Wetterdaten: Donnerstag, 25.05.2023
Datum Zeit Temp. 2m Temp +5 cm Feuchte A. Luftdruck Regen Wind Richtung Richtung Sonnenschein UV Solar Taupunkt Windchill Windben
25.05.2023 00:00 5,3 C 3,3 C 88 % 1025,8 hPa 0,0 l/m 0,0 km/h (0 Bft) N-NO 14 0 min 0,0 UV-I 0 W/m 3,5 C 5,3 C 0,0 km/h (0 Bft)
25.05.2023 00:03 5,2 C 3,3 C 88 % 1025,8 hPa 0,0 l/m 0,0 km/h (0 Bft) N-NO 14 0 min 0,0 UV-I 0 W/m 3,4 C 5,2 C 1,6 km/h (1 Bft)
25.05.2023 00:06 5,2 C 3,3 C 88 % 1025,9 hPa 0,0 l/m 0,2 km/h (0 Bft) N-NO 14 0 min 0,0 UV-I 0 W/m 3,4 C 5,2 C 1,6 km/h (1 Bft)
25.05.2023 00:09 5,2 C 2,8 C 88 % 1026,0 hPa 0,0 l/m 0,3 km/h (0 Bft) N-NO 14 0 min 0,0 UV-I 0 W/m 3,4 C 5,2 C 1,6 km/h (1 Bft)
25.05.2023 00:12 5,0 C 3,3 C 88 % 1026,0 hPa 0,0 l/m 0,5 km/h (0 Bft) N-NO 14 0 min 0,0 UV-I 0 W/m 3,2 C 5,0 C 1,6 km/h (1 Bft)
25.05.2023 00:15 4,8 C 2,8 C 88 % 1025,9 hPa 0,0 l/m 0,7 km/h (0 Bft) N-NO 14 0 min 0,0 UV-I 0 W/m 3,0 C 4,8 C 3,2 km/h (1 Bft)
25.05.2023 00:18 4,8 C 2,8 C 89 % 1025,9 hPa 0,0 l/m 0,9 km/h (0 Bft) N-NO 14 0 min 0,0 UV-I 0 W/m 3,1 C 4,8 C 3,2 km/h (1 Bft)
25.05.2023 00:21 4,8 C 2,8 C 89 % 1025,8 hPa 0,0 l/m 0,3 km/h (0 Bft) N-NO 14 0 min 0,0 UV-I 0 W/m 3,1 C 4,8 C 1,6 km/h (1 Bft)
25.05.2023 00:24 4,8 C 2,8 C 89 % 1025,8 hPa 0,0 l/m 0,7 km/h (0 Bft) N-NO 14 0 min 0,0 UV-I 0 W/m 3,1 C 4,8 C 1,6 km/h (1 Bft)
25.05.2023 00:27 4,8 C 2,8 C 89 % 1025,7 hPa 0,0 l/m 0,2 km/h (0 Bft) N-NO 14 0 min 0,0 UV-I 0 W/m 3,1 C 4,8 C 1,6 km/h (1 Bft)
25.05.2023 00:30 4,6 C 2,8 C 88 % 1025,9 hPa 0,0 l/m 1,3 km/h (1 Bft) N-NO 14 0 min 0,0 UV-I 0 W/m 2,8 C 4,6 C 3,2 km/h (1 Bft)
25.05.2023 00:33 4,4 C 2,8 C 89 % 1025,8 hPa 0,0 l/m 1,8 km/h (1 Bft) N-NO 14 0 min 0,0 UV-I 0 W/m 2,7 C 4,4 C 3,2 km/h (1 Bft)
25.05.2023 00:36 4,6 C 2,8 C 89 % 1025,8 hPa 0,0 l/m 1,4 km/h (1 Bft) N-NO 14 0 min 0,0 UV-I 0 W/m 2,9 C 4,6 C 3,2 km/h (1 Bft)
25.05.2023 00:39 4,8 C 2,8 C 90 % 1025,8 hPa 0,0 l/m 1,1 km/h (1 Bft) N-NO 14 0 min 0,0 UV-I 0 W/m 3,3 C 4,8 C 3,2 km/h (1 Bft)
25.05.2023 00:42 4,8 C 2,8 C 89 % 1025,8 hPa 0,0 l/m 1,0 km/h (0 Bft) N-NO 14 0 min 0,0 UV-I 0 W/m 3,1 C 4,8 C 3,2 km/h (1 Bft)
25.05.2023 00:45 4,8 C 2,8 C 89 % 1025,9 hPa 0,0 l/m 0,3 km/h (0 Bft) N-NO 14 0 min 0,0 UV-I 0 W/m 3,1 C 4,8 C 1,6 km/h (1 Bft)
25.05.2023 00:48 4,6 C 2,8 C 89 % 1026,0 hPa 0,0 l/m 0,4 km/h (0 Bft) N-NO 14 0 min 0,0 UV-I 0 W/m 2,9 C 4,6 C 1,6 km/h (1 Bft)
25.05.2023 00:51 4,7 C 2,8 C 90 % 1025,9 hPa 0,0 l/m 0,4 km/h (0 Bft) N-NO 14 0 min 0,0 UV-I 0 W/m 3,2 C 4,7 C 1,6 km/h (1 Bft)
25.05.2023 00:54 4,7 C 2,8 C 90 % 1026,0 hPa 0,0 l/m 0,0 km/h (0 Bft) N-NO 14 0 min 0,0 UV-I 0 W/m 3,2 C 4,7 C 0,0 km/h (0 Bft)
25.05.2023 00:57 4,4 C 2,8 C 89 % 1025,9 hPa 0,0 l/m 0,2 km/h (0 Bft) N-NO 14 0 min 0,0 UV-I 0 W/m 2,7 C 4,4 C 1,6 km/h (1 Bft)
25.05.2023 01:00 4,6 C 2,2 C 90 % 1025,9 hPa 0,0 l/m 1,0 km/h (0 Bft) N-NO 14 0 min 0,0 UV-I 0 W/m 3,1 C 4,6 C 3,2 km/h (1 Bft)
25.05.2023 01:03 4,6 C 2,2 C 90 % 1025,9 hPa 0,0 l/m 0,6 km/h (0 Bft) N-NO 14 0 min 0,0 UV-I 0 W/m 3,1 C 4,6 C 3,2 km/h (1 Bft)
25.05.2023 01:06 4,4 C 2,2 C 89 % 1025,8 hPa 0,0 l/m 0,5 km/h (0 Bft) N-NO 14 0 min 0,0 UV-I 0 W/m 2,7 C 4,4 C 1,6 km/h (1 Bft)
25.05.2023 01:09 4,6 C 2,8 C 90 % 1025,9 hPa 0,0 l/m 0,0 km/h (0 Bft) N-NO 14 0 min 0,0 UV-I 0 W/m 3,1 C 4,6 C 1,6 km/h (1 Bft)
25.05.2023 01:12 4,5 C 2,8 C 90 % 1025,9 hPa 0,0 l/m 1,6 km/h (1 Bft) N-NO 14 0 min 0,0 UV-I 0 W/m 3,0 C 4,5 C 3,2 km/h (1 Bft)
25.05.2023 01:15 4,5 C 2,8 C 90 % 1025,9 hPa 0,0 l/m 2,0 km/h (1 Bft) N-NO 14 0 min 0,0 UV-I 0 W/m 3,0 C 4,5 C 3,2 km/h (1 Bft)
25.05.2023 01:18 4,6 C 2,8 C 90 % 1025,9 hPa 0,0 l/m 2,6 km/h (1 Bft) N 355 0 min 0,0 UV-I 0 W/m 3,1 C 4,6 C 4,8 km/h (1 Bft)
25.05.2023 01:21 4,6 C 2,8 C 90 % 1026,0 hPa 0,0 l/m 3,5 km/h (1 Bft) N-NW 328 0 min 0,0 UV-I 0 W/m 3,1 C 4,6 C 4,8 km/h (1 Bft)
25.05.2023 01:24 4,5 C 2,8 C 90 % 1026,0 hPa 0,0 l/m 1,4 km/h (1 Bft) N-NW 328 0 min 0,0 UV-I 0 W/m 3,0 C 4,5 C 4,8 km/h (1 Bft)
25.05.2023 01:27 4,6 C 2,2 C 90 % 1025,9 hPa 0,0 l/m 4,1 km/h (1 Bft) NW 313 0 min 0,0 UV-I 0 W/m 3,1 C 4,6 C 6,4 km/h (2 Bft)
25.05.2023 01:30 4,8 C 2,8 C 90 % 1025,9 hPa 0,0 l/m 2,5 km/h (1 Bft) SW 236 0 min 0,0 UV-I 0 W/m 3,3 C 4,8 C 4,8 km/h (1 Bft)
25.05.2023 01:33 4,6 C 2,8 C 90 % 1025,8 hPa 0,0 l/m 0,3 km/h (0 Bft) SW 236 0 min 0,0 UV-I 0 W/m 3,1 C 4,6 C 1,6 km/h (1 Bft)
25.05.2023 01:36 4,9 C 2,8 C 90 % 1025,9 hPa 0,0 l/m 0,3 km/h (0 Bft) W-SW 237 0 min 0,0 UV-I 0 W/m 3,4 C 4,9 C 1,6 km/h (1 Bft)
25.05.2023 01:39 4,8 C 2,8 C 90 % 1026,0 hPa 0,0 l/m 0,7 km/h (0 Bft) W-SW 237 0 min 0,0 UV-I 0 W/m 3,3 C 4,8 C 3,2 km/h (1 Bft)
25.05.2023 01:42 4,7 C 2,8 C 90 % 1025,8 hPa 0,0 l/m 1,5 km/h (1 Bft) S-SW 196 0 min 0,0 UV-I 0 W/m 3,2 C 4,7 C 4,8 km/h (1 Bft)
25.05.2023 01:45 4,7 C 2,8 C 90 % 1025,9 hPa 0,0 l/m 0,6 km/h (0 Bft) S-SW 196 0 min 0,0 UV-I 0 W/m 3,2 C 4,7 C 1,6 km/h (1 Bft)
25.05.2023 01:48 4,8 C 2,8 C 90 % 1025,9 hPa 0,0 l/m 0,0 km/h (0 Bft) S-SW 196 0 min 0,0 UV-I 0 W/m 3,3 C 4,8 C 0,0 km/h (0 Bft)
25.05.2023 01:51 4,8 C 2,8 C 90 % 1026,0 hPa 0,0 l/m 1,4 km/h (1 Bft) S-SW 196 0 min 0,0 UV-I 0 W/m 3,3 C 4,8 C 3,2 km/h (1 Bft)
25.05.2023 01:54 4,8 C 2,8 C 90 % 1026,0 hPa 0,0 l/m 0,9 km/h (0 Bft) S-SW 194 0 min 0,0 UV-I 0 W/m 3,3 C 4,8 C 3,2 km/h (1 Bft)
25.05.2023 01:57 4,9 C 2,8 C 90 % 1026,0 hPa 0,0 l/m 0,8 km/h (0 Bft) S-SW 194 0 min 0,0 UV-I 0 W/m 3,4 C 4,9 C 3,2 km/h (1 Bft)
25.05.2023 02:00 5,1 C 2,8 C 90 % 1026,1 hPa 0,0 l/m 2,6 km/h (1 Bft) O-NO 59 0 min 0,0 UV-I 0 W/m 3,6 C 5,1 C 6,4 km/h (2 Bft)
25.05.2023 02:03 5,2 C 2,8 C 90 % 1026,1 hPa 0,0 l/m 3,2 km/h (1 Bft) NO 51 0 min 0,0 UV-I 0 W/m 3,7 C 5,2 C 4,8 km/h (1 Bft)
25.05.2023 02:06 5,1 C 2,8 C 90 % 1026,0 hPa 0,0 l/m 0,9 km/h (0 Bft) NO 51 0 min 0,0 UV-I 0 W/m 3,6 C 5,1 C 3,2 km/h (1 Bft)
25.05.2023 02:09 5,1 C 2,8 C 90 % 1026,0 hPa 0,0 l/m 1,4 km/h (1 Bft) NO 51 0 min 0,0 UV-I 0 W/m 3,6 C 5,1 C 3,2 km/h (1 Bft)
25.05.2023 02:12 5,1 C 2,8 C 90 % 1026,0 hPa 0,0 l/m 0,3 km/h (0 Bft) NO 51 0 min 0,0 UV-I 0 W/m 3,6 C 5,1 C 3,2 km/h (1 Bft)
25.05.2023 02:15 5,0 C 2,8 C 89 % 1026,0 hPa 0,0 l/m 0,8 km/h (0 Bft) NO 51 0 min 0,0 UV-I 0 W/m 3,3 C 5,0 C 3,2 km/h (1 Bft)
25.05.2023 02:18 4,9 C 2,8 C 89 % 1026,0 hPa 0,0 l/m 0,1 km/h (0 Bft) NO 51 0 min 0,0 UV-I 0 W/m 3,2 C 4,9 C 1,6 km/h (1 Bft)
25.05.2023 02:21 4,4 C 2,2 C 89 % 1025,9 hPa 0,0 l/m 0,6 km/h (0 Bft) NO 51 0 min 0,0 UV-I 0 W/m 2,7 C 4,4 C 3,2 km/h (1 Bft)
25.05.2023 02:24 4,3 C 2,2 C 90 % 1025,9 hPa 0,0 l/m 1,3 km/h (1 Bft) NO 51 0 min 0,0 UV-I 0 W/m 2,8 C 4,3 C 3,2 km/h (1 Bft)
25.05.2023 02:27 4,6 C 2,2 C 90 % 1026,0 hPa 0,0 l/m 1,6 km/h (1 Bft) NO 51 0 min 0,0 UV-I 0 W/m 3,1 C 4,6 C 3,2 km/h (1 Bft)
25.05.2023 02:30 4,8 C 2,8 C 90 % 1025,9 hPa 0,0 l/m 0,3 km/h (0 Bft) NO 51 0 min 0,0 UV-I 0 W/m 3,3 C 4,8 C 1,6 km/h (1 Bft)
25.05.2023 02:33 4,6 C 2,2 C 90 % 1026,0 hPa 0,0 l/m 0,0 km/h (0 Bft) NO 51 0 min 0,0 UV-I 0 W/m 3,1 C 4,6 C 1,6 km/h (1 Bft)
25.05.2023 02:36 4,5 C 2,2 C 90 % 1025,9 hPa 0,0 l/m 0,6 km/h (0 Bft) NO 51 0 min 0,0 UV-I 0 W/m 3,0 C 4,5 C 3,2 km/h (1 Bft)
25.05.2023 02:39 4,6 C 2,8 C 90 % 1025,9 hPa 0,0 l/m 0,6 km/h (0 Bft) NO 51 0 min 0,0 UV-I 0 W/m 3,1 C 4,6 C 1,6 km/h (1 Bft)
25.05.2023 02:42 4,6 C 2,2 C 90 % 1025,9 hPa 0,0 l/m 0,7 km/h (0 Bft) NO 51 0 min 0,0 UV-I 0 W/m 3,1 C 4,6 C 1,6 km/h (1 Bft)
25.05.2023 02:45 4,6 C 2,2 C 90 % 1025,9 hPa 0,0 l/m 2,2 km/h (1 Bft) NO 51 0 min 0,0 UV-I 0 W/m 3,1 C 4,6 C 3,2 km/h (1 Bft)
25.05.2023 02:48 4,6 C 2,2 C 90 % 1025,9 hPa 0,0 l/m 2,3 km/h (1 Bft) NO 51 0 min 0,0 UV-I 0 W/m 3,1 C 4,6 C 3,2 km/h (1 Bft)
25.05.2023 02:51 4,5 C 2,2 C 90 % 1025,9 hPa 0,0 l/m 0,8 km/h (0 Bft) NO 51 0 min 0,0 UV-I 0 W/m 3,0 C 4,5 C 1,6 km/h (1 Bft)
25.05.2023 02:54 4,1 C 2,2 C 90 % 1025,8 hPa 0,0 l/m 0,1 km/h (0 Bft) NO 51 0 min 0,0 UV-I 0 W/m 2,6 C 4,1 C 1,6 km/h (1 Bft)
25.05.2023 02:57 4,1 C 2,2 C 90 % 1025,8 hPa 0,0 l/m 0,0 km/h (0 Bft) NO 51 0 min 0,0 UV-I 0 W/m 2,6 C 4,1 C 0,0 km/h (0 Bft)
25.05.2023 03:00 4,1 C 2,2 C 90 % 1025,9 hPa 0,0 l/m 0,2 km/h (0 Bft) NO 51 0 min 0,0 UV-I 0 W/m 2,6 C 4,1 C 1,6 km/h (1 Bft)
25.05.2023 03:03 4,1 C 2,2 C 91 % 1025,7 hPa 0,0 l/m 0,2 km/h (0 Bft) NO 51 0 min 0,0 UV-I 0 W/m 2,8 C 4,1 C 1,6 km/h (1 Bft)
25.05.2023 03:06 3,9 C 2,2 C 90 % 1025,9 hPa 0,0 l/m 1,3 km/h (1 Bft) NO 51 0 min 0,0 UV-I 0 W/m 2,4 C 3,9 C 3,2 km/h (1 Bft)
25.05.2023 03:09 3,8 C 2,2 C 90 % 1025,8 hPa 0,0 l/m 1,5 km/h (1 Bft) NO 51 0 min 0,0 UV-I 0 W/m 2,3 C 3,8 C 3,2 km/h (1 Bft)
25.05.2023 03:12 3,8 C 2,2 C 91 % 1025,8 hPa 0,0 l/m 2,7 km/h (1 Bft) NO 51 0 min 0,0 UV-I 0 W/m 2,5 C 3,8 C 4,8 km/h (1 Bft)
25.05.2023 03:15 4,0 C 2,2 C 91 % 1025,8 hPa 0,0 l/m 2,2 km/h (1 Bft) NO 49 0 min 0,0 UV-I 0 W/m 2,7 C 4,0 C 4,8 km/h (1 Bft)
25.05.2023 03:18 4,3 C 2,2 C 91 % 1025,9 hPa 0,0 l/m 1,3 km/h (1 Bft) NO 49 0 min 0,0 UV-I 0 W/m 3,0 C 4,3 C 3,2 km/h (1 Bft)
25.05.2023 03:21 4,4 C 2,2 C 91 % 1026,0 hPa 0,0 l/m 1,3 km/h (1 Bft) NO 49 0 min 0,0 UV-I 0 W/m 3,1 C 4,4 C 3,2 km/h (1 Bft)
25.05.2023 03:24 4,3 C 2,2 C 91 % 1025,9 hPa 0,0 l/m 0,9 km/h (0 Bft) NO 49 0 min 0,0 UV-I 0 W/m 3,0 C 4,3 C 3,2 km/h (1 Bft)
25.05.2023 03:27 4,2 C 2,2 C 91 % 1025,9 hPa 0,0 l/m 1,4 km/h (1 Bft) NO 49 0 min 0,0 UV-I 0 W/m 2,9 C 4,2 C 3,2 km/h (1 Bft)
25.05.2023 03:30 3,8 C 1,7 C 90 % 1025,9 hPa 0,0 l/m 0,9 km/h (0 Bft) NO 49 0 min 0,0 UV-I 0 W/m 2,3 C 3,8 C 3,2 km/h (1 Bft)
25.05.2023 03:33 3,4 C 1,7 C 90 % 1025,9 hPa 0,0 l/m 0,0 km/h (0 Bft) NO 49 0 min 0,0 UV-I 0 W/m 1,9 C 3,4 C 0,0 km/h (0 Bft)
25.05.2023 03:36 3,3 C 1,7 C 90 % 1025,9 hPa 0,0 l/m 0,8 km/h (0 Bft) NO 49 0 min 0,0 UV-I 0 W/m 1,8 C 3,3 C 3,2 km/h (1 Bft)
25.05.2023 03:39 3,2 C 1,7 C 91 % 1025,9 hPa 0,0 l/m 0,2 km/h (0 Bft) NO 49 0 min 0,0 UV-I 0 W/m 1,9 C 3,2 C 1,6 km/h (1 Bft)
25.05.2023 03:42 3,1 C 1,7 C 91 % 1026,0 hPa 0,0 l/m 1,1 km/h (1 Bft) NO 49 0 min 0,0 UV-I 0 W/m 1,8 C 3,1 C 3,2 km/h (1 Bft)
25.05.2023 03:45 3,3 C 1,7 C 91 % 1026,0 hPa 0,0 l/m 0,0 km/h (0 Bft) NO 49 0 min 0,0 UV-I 0 W/m 2,0 C 3,3 C 0,0 km/h (0 Bft)
25.05.2023 03:48 3,4 C 1,7 C 91 % 1026,0 hPa 0,0 l/m 0,0 km/h (0 Bft) NO 49 0 min 0,0 UV-I 0 W/m 2,1 C 3,4 C 0,0 km/h (0 Bft)
25.05.2023 03:51 3,4 C 1,7 C 91 % 1026,1 hPa 0,0 l/m 0,7 km/h (0 Bft) NO 49 0 min 0,0 UV-I 0 W/m 2,1 C 3,4 C 1,6 km/h (1 Bft)
25.05.2023 03:54 3,4 C 1,7 C 91 % 1026,0 hPa 0,0 l/m 0,4 km/h (0 Bft) NO 49 0 min 0,0 UV-I 0 W/m 2,1 C 3,4 C 3,2 km/h (1 Bft)
25.05.2023 03:57 3,3 C 1,7 C 91 % 1026,1 hPa 0,0 l/m 0,0 km/h (0 Bft) NO 49 0 min 0,0 UV-I 0 W/m 2,0 C 3,3 C 0,0 km/h (0 Bft)
25.05.2023 04:00 3,4 C 1,7 C 91 % 1026,0 hPa 0,0 l/m 0,0 km/h (0 Bft) NO 49 0 min 0,0 UV-I 0 W/m 2,1 C 3,4 C 0,0 km/h (0 Bft)
25.05.2023 04:03 3,6 C 1,7 C 91 % 1026,0 hPa 0,0 l/m 0,0 km/h (0 Bft) NO 49 0 min 0,0 UV-I 0 W/m 2,3 C 3,6 C 1,6 km/h (1 Bft)
25.05.2023 04:06 3,6 C 1,7 C 91 % 1026,0 hPa 0,0 l/m 0,2 km/h (0 Bft) NO 49 0 min 0,0 UV-I 0 W/m 2,3 C 3,6 C 1,6 km/h (1 Bft)
25.05.2023 04:09 3,3 C 1,7 C 91 % 1026,0 hPa 0,0 l/m 0,1 km/h (0 Bft) NO 49 0 min 0,0 UV-I 0 W/m 2,0 C 3,3 C 1,6 km/h (1 Bft)
25.05.2023 04:12 3,2 C 1,7 C 91 % 1026,0 hPa 0,0 l/m 0,0 km/h (0 Bft) NO 49 0 min 0,0 UV-I 0 W/m 1,9 C 3,2 C 0,0 km/h (0 Bft)
25.05.2023 04:15 3,4 C 1,1 C 92 % 1026,0 hPa 0,0 l/m 0,0 km/h (0 Bft) NO 49 0 min 0,0 UV-I 0 W/m 2,2 C 3,4 C 0,0 km/h (0 Bft)
25.05.2023 04:18 3,4 C 1,7 C 91 % 1025,9 hPa 0,0 l/m 0,0 km/h (0 Bft) NO 49 0 min 0,0 UV-I 0 W/m 2,1 C 3,4 C 0,0 km/h (0 Bft)
25.05.2023 04:21 2,8 C 1,1 C 91 % 1026,0 hPa 0,0 l/m 0,0 km/h (0 Bft) NO 49 0 min 0,0 UV-I 0 W/m 1,5 C 2,8 C 0,0 km/h (0 Bft)
25.05.2023 04:24 2,7 C 1,1 C 91 % 1026,0 hPa 0,0 l/m 0,0 km/h (0 Bft) NO 49 0 min 0,0 UV-I 0 W/m 1,4 C 2,7 C 0,0 km/h (0 Bft)
25.05.2023 04:27 2,8 C 1,1 C 91 % 1026,0 hPa 0,0 l/m 0,1 km/h (0 Bft) NO 49 0 min 0,0 UV-I 0 W/m 1,5 C 2,8 C 1,6 km/h (1 Bft)
25.05.2023 04:30 2,8 C 1,1 C 91 % 1026,0 hPa 0,0 l/m 0,2 km/h (0 Bft) NO 49 0 min 0,0 UV-I 0 W/m 1,5 C 2,8 C 1,6 km/h (1 Bft)
25.05.2023 04:33 2,6 C 1,1 C 91 % 1026,0 hPa 0,0 l/m 1,0 km/h (0 Bft) NO 49 0 min 0,0 UV-I 0 W/m 1,3 C 2,6 C 3,2 km/h (1 Bft)
25.05.2023 04:36 2,8 C 1,1 C 92 % 1026,0 hPa 0,0 l/m 2,7 km/h (1 Bft) NO 49 0 min 0,0 UV-I 0 W/m 1,6 C 2,8 C 4,8 km/h (1 Bft)
25.05.2023 04:39 3,3 C 1,1 C 92 % 1025,9 hPa 0,0 l/m 1,5 km/h (1 Bft) NO 49 0 min 0,0 UV-I 0 W/m 2,1 C 3,3 C 3,2 km/h (1 Bft)
25.05.2023 04:42 3,3 C 1,1 C 92 % 1025,9 hPa 0,0 l/m 0,4 km/h (0 Bft) NO 49 0 min 0,0 UV-I 0 W/m 2,1 C 3,3 C 1,6 km/h (1 Bft)
25.05.2023 04:45 2,8 C 1,1 C 91 % 1025,9 hPa 0,0 l/m 0,1 km/h (0 Bft) NO 49 0 min 0,0 UV-I 0 W/m 1,5 C 2,8 C 1,6 km/h (1 Bft)
25.05.2023 04:48 2,9 C 1,1 C 91 % 1025,9 hPa 0,0 l/m 0,4 km/h (0 Bft) NO 49 0 min 0,0 UV-I 0 W/m 1,6 C 2,9 C 3,2 km/h (1 Bft)
25.05.2023 04:51 3,1 C 1,1 C 92 % 1025,9 hPa 0,0 l/m 1,5 km/h (1 Bft) NO 49 0 min 0,0 UV-I 0 W/m 1,9 C 3,1 C 4,8 km/h (1 Bft)
25.05.2023 04:54 3,4 C 1,1 C 92 % 1025,9 hPa 0,0 l/m 1,3 km/h (1 Bft) NO 49 0 min 0,0 UV-I 0 W/m 2,2 C 3,4 C 3,2 km/h (1 Bft)
25.05.2023 04:57 3,7 C 1,7 C 92 % 1025,8 hPa 0,0 l/m 2,0 km/h (1 Bft) NO 49 0 min 0,0 UV-I 0 W/m 2,5 C 3,7 C 3,2 km/h (1 Bft)
25.05.2023 05:00 3,9 C 1,7 C 92 % 1026,0 hPa 0,0 l/m 3,1 km/h (1 Bft) NO 49 0 min 0,0 UV-I 0 W/m 2,7 C 3,9 C 4,8 km/h (1 Bft)
25.05.2023 05:03 3,9 C 1,7 C 92 % 1026,0 hPa 0,0 l/m 2,7 km/h (1 Bft) NO 49 0 min 0,0 UV-I 0 W/m 2,7 C 3,9 C 3,2 km/h (1 Bft)
25.05.2023 05:06 3,8 C 1,7 C 92 % 1025,9 hPa 0,0 l/m 2,8 km/h (1 Bft) NO 49 0 min 0,0 UV-I 0 W/m 2,6 C 3,8 C 4,8 km/h (1 Bft)
25.05.2023 05:09 3,6 C 1,7 C 91 % 1026,1 hPa 0,0 l/m 2,1 km/h (1 Bft) NO 49 0 min 0,0 UV-I 0 W/m 2,3 C 3,6 C 3,2 km/h (1 Bft)
25.05.2023 05:12 3,1 C 1,1 C 91 % 1026,1 hPa 0,0 l/m 1,7 km/h (1 Bft) NO 49 0 min 0,0 UV-I 0 W/m 1,8 C 3,1 C 4,8 km/h (1 Bft)
25.05.2023 05:15 2,8 C 1,1 C 91 % 1026,0 hPa 0,0 l/m 0,2 km/h (0 Bft) NO 49 0 min 0,0 UV-I 0 W/m 1,5 C 2,8 C 1,6 km/h (1 Bft)
25.05.2023 05:18 3,2 C 1,1 C 92 % 1026,0 hPa 0,0 l/m 0,3 km/h (0 Bft) NO 49 0 min 0,0 UV-I 0 W/m 2,0 C 3,2 C 1,6 km/h (1 Bft)
25.05.2023 05:21 3,8 C 1,7 C 93 % 1026,1 hPa 0,0 l/m 1,2 km/h (1 Bft) NO 49 0 min 0,0 UV-I 0 W/m 2,8 C 3,8 C 4,8 km/h (1 Bft)
25.05.2023 05:24 3,9 C 1,7 C 92 % 1026,0 hPa 0,0 l/m 3,0 km/h (1 Bft) NO 49 0 min 0,0 UV-I 0 W/m 2,7 C 3,9 C 4,8 km/h (1 Bft)
25.05.2023 05:27 4,0 C 1,7 C 92 % 1026,0 hPa 0,0 l/m 2,0 km/h (1 Bft) NO 49 0 min 0,0 UV-I 0 W/m 2,8 C 4,0 C 4,8 km/h (1 Bft)
25.05.2023 05:30 3,5 C 1,7 C 91 % 1026,1 hPa 0,0 l/m 0,2 km/h (0 Bft) NO 49 0 min 0,0 UV-I 0 W/m 2,2 C 3,5 C 1,6 km/h (1 Bft)
25.05.2023 05:33 3,1 C 1,7 C 91 % 1026,1 hPa 0,0 l/m 0,0 km/h (0 Bft) NO 49 0 min 0,0 UV-I 0 W/m 1,8 C 3,1 C 0,0 km/h (0 Bft)
25.05.2023 05:36 2,9 C 1,1 C 91 % 1026,1 hPa 0,0 l/m 0,0 km/h (0 Bft) NO 49 0 min 0,0 UV-I 0 W/m 1,6 C 2,9 C 0,0 km/h (0 Bft)
25.05.2023 05:39 3,2 C 1,1 C 92 % 1026,2 hPa 0,0 l/m 2,3 km/h (1 Bft) NO 47 0 min 0,0 UV-I 1 W/m 2,0 C 3,2 C 4,8 km/h (1 Bft)
25.05.2023 05:42 2,8 C 1,1 C 91 % 1026,3 hPa 0,0 l/m 0,8 km/h (0 Bft) NO 47 0 min 0,0 UV-I 5 W/m 1,5 C 2,8 C 3,2 km/h (1 Bft)
25.05.2023 05:45 2,4 C 1,1 C 91 % 1026,3 hPa 0,0 l/m 0,0 km/h (0 Bft) NO 47 0 min 0,0 UV-I 6 W/m 1,1 C 2,4 C 0,0 km/h (0 Bft)
25.05.2023 05:48 2,6 C 1,1 C 92 % 1026,3 hPa 0,0 l/m 0,6 km/h (0 Bft) NO 47 0 min 0,0 UV-I 7 W/m 1,4 C 2,6 C 4,8 km/h (1 Bft)
25.05.2023 05:51 2,7 C 1,1 C 92 % 1026,4 hPa 0,0 l/m 0,4 km/h (0 Bft) NO 47 0 min 0,0 UV-I 9 W/m 1,5 C 2,7 C 1,6 km/h (1 Bft)
25.05.2023 05:54 2,8 C 1,1 C 92 % 1026,3 hPa 0,0 l/m 1,4 km/h (1 Bft) NO 46 0 min 0,0 UV-I 11 W/m 1,6 C 2,8 C 4,8 km/h (1 Bft)
25.05.2023 05:57 2,5 C 1,1 C 91 % 1026,3 hPa 0,0 l/m 0,2 km/h (0 Bft) NO 46 0 min 0,0 UV-I 12 W/m 1,2 C 2,5 C 1,6 km/h (1 Bft)
25.05.2023 06:00 2,8 C 1,1 C 92 % 1026,5 hPa 0,0 l/m 1,0 km/h (0 Bft) NO 46 0 min 0,0 UV-I 13 W/m 1,6 C 2,8 C 1,6 km/h (1 Bft)
25.05.2023 06:03 2,7 C 1,1 C 92 % 1026,4 hPa 0,0 l/m 0,2 km/h (0 Bft) NO 46 0 min 0,0 UV-I 15 W/m 1,5 C 2,7 C 1,6 km/h (1 Bft)
25.05.2023 06:06 2,7 C 1,1 C 92 % 1026,5 hPa 0,0 l/m 0,0 km/h (0 Bft) NO 46 0 min 0,0 UV-I 16 W/m 1,5 C 2,7 C 0,0 km/h (0 Bft)
25.05.2023 06:09 2,9 C 1,7 C 92 % 1026,5 hPa 0,0 l/m 0,0 km/h (0 Bft) NO 46 0 min 0,0 UV-I 18 W/m 1,7 C 2,9 C 0,0 km/h (0 Bft)
25.05.2023 06:12 3,3 C 1,7 C 92 % 1026,4 hPa 0,0 l/m 0,5 km/h (0 Bft) NO 46 0 min 0,0 UV-I 19 W/m 2,1 C 3,3 C 1,6 km/h (1 Bft)
25.05.2023 06:15 3,6 C 1,7 C 92 % 1026,5 hPa 0,0 l/m 1,8 km/h (1 Bft) NO 46 0 min 0,0 UV-I 21 W/m 2,4 C 3,6 C 3,2 km/h (1 Bft)
25.05.2023 06:18 3,9 C 2,2 C 93 % 1026,4 hPa 0,0 l/m 1,9 km/h (1 Bft) NO 46 0 min 0,0 UV-I 24 W/m 2,9 C 3,9 C 3,2 km/h (1 Bft)
25.05.2023 06:21 3,7 C 2,2 C 92 % 1026,4 hPa 0,0 l/m 1,3 km/h (1 Bft) NO 46 0 min 0,0 UV-I 27 W/m 2,5 C 3,7 C 4,8 km/h (1 Bft)
25.05.2023 06:24 4,1 C 2,2 C 93 % 1026,5 hPa 0,0 l/m 2,5 km/h (1 Bft) NO 46 0 min 0,0 UV-I 30 W/m 3,1 C 4,1 C 4,8 km/h (1 Bft)
25.05.2023 06:27 3,8 C 2,2 C 92 % 1026,6 hPa 0,0 l/m 1,5 km/h (1 Bft) NO 46 0 min 0,0 UV-I 34 W/m 2,6 C 3,8 C 3,2 km/h (1 Bft)
25.05.2023 06:30 3,5 C 2,8 C 92 % 1026,7 hPa 0,0 l/m 0,5 km/h (0 Bft) NO 45 0 min 0,0 UV-I 39 W/m 2,3 C 3,5 C 3,2 km/h (1 Bft)
25.05.2023 06:33 3,3 C 2,8 C 92 % 1026,7 hPa 0,0 l/m 0,5 km/h (0 Bft) NO 46 0 min 0,0 UV-I 44 W/m 2,1 C 3,3 C 1,6 km/h (1 Bft)
25.05.2023 06:36 3,5 C 2,8 C 92 % 1026,7 hPa 0,0 l/m 2,2 km/h (1 Bft) NO 46 0 min 0,0 UV-I 48 W/m 2,3 C 3,5 C 4,8 km/h (1 Bft)
25.05.2023 06:39 4,1 C 2,8 C 93 % 1026,8 hPa 0,0 l/m 2,2 km/h (1 Bft) NO 45 0 min 0,0 UV-I 52 W/m 3,1 C 4,1 C 4,8 km/h (1 Bft)
25.05.2023 06:42 3,8 C 2,8 C 92 % 1026,8 hPa 0,0 l/m 1,3 km/h (1 Bft) NO 45 0 min 0,0 UV-I 58 W/m 2,6 C 3,8 C 3,2 km/h (1 Bft)
25.05.2023 06:45 3,7 C 2,8 C 92 % 1026,8 hPa 0,0 l/m 0,3 km/h (0 Bft) NO 46 0 min 0,0 UV-I 63 W/m 2,5 C 3,7 C 1,6 km/h (1 Bft)
25.05.2023 06:48 3,6 C 2,8 C 92 % 1026,7 hPa 0,0 l/m 0,0 km/h (0 Bft) NO 45 0 min 0,0 UV-I 69 W/m 2,4 C 3,6 C 0,0 km/h (0 Bft)
25.05.2023 06:51 3,6 C 2,8 C 92 % 1026,7 hPa 0,0 l/m 0,0 km/h (0 Bft) NO 46 0 min 0,0 UV-I 74 W/m 2,4 C 3,6 C 0,0 km/h (0 Bft)
25.05.2023 06:54 4,1 C 3,3 C 93 % 1026,8 hPa 0,0 l/m 1,2 km/h (1 Bft) NO 45 0 min 0,0 UV-I 80 W/m 3,1 C 4,1 C 3,2 km/h (1 Bft)
25.05.2023 06:57 4,4 C 3,3 C 93 % 1026,9 hPa 0,0 l/m 2,1 km/h (1 Bft) NO 45 0 min 0,0 UV-I 87 W/m 3,4 C 4,4 C 3,2 km/h (1 Bft)
25.05.2023 07:00 4,8 C 3,9 C 93 % 1026,8 hPa 0,0 l/m 3,5 km/h (1 Bft) NO 44 0 min 0,0 UV-I 93 W/m 3,8 C 4,8 C 6,4 km/h (2 Bft)
25.05.2023 07:01 4,8 C 3,9 C 93 % 1026,8 hPa 0,0 l/m 1,6 km/h (1 Bft) NO 45 0 min 0,0 UV-I 97 W/m 3,8 C 4,8 C 3,2 km/h (1 Bft)
25.05.2023 07:03 4,7 C 4,4 C 92 % 1026,9 hPa 0,0 l/m 3,0 km/h (1 Bft) NO 44 0 min 0,0 UV-I 98 W/m 3,5 C 4,7 C 4,8 km/h (1 Bft)
25.05.2023 07:06 5,0 C 5,0 C 93 % 1026,9 hPa 0,0 l/m 1,6 km/h (1 Bft) NO 44 0 min 0,0 UV-I 98 W/m 4,0 C 5,0 C 3,2 km/h (1 Bft)
25.05.2023 07:09 5,2 C 5,6 C 93 % 1026,8 hPa 0,0 l/m 3,1 km/h (1 Bft) NO 44 0 min 0,4 UV-I 99 W/m 4,2 C 5,2 C 4,8 km/h (1 Bft)
25.05.2023 07:12 5,1 C 5,6 C 92 % 1026,8 hPa 0,0 l/m 1,5 km/h (1 Bft) NO 44 0 min 0,5 UV-I 107 W/m 3,9 C 5,1 C 3,2 km/h (1 Bft)
25.05.2023 07:15 5,3 C 5,6 C 92 % 1026,9 hPa 0,0 l/m 2,8 km/h (1 Bft) NO 44 0 min 0,5 UV-I 118 W/m 4,1 C 5,3 C 4,8 km/h (1 Bft)
25.05.2023 07:18 5,3 C 6,1 C 92 % 1026,9 hPa 0,0 l/m 1,9 km/h (1 Bft) NO 44 3 min 0,5 UV-I 133 W/m 4,1 C 5,3 C 3,2 km/h (1 Bft)
25.05.2023 07:21 5,7 C 6,1 C 92 % 1026,9 hPa 0,0 l/m 4,0 km/h (1 Bft) NO 41 3 min 0,6 UV-I 145 W/m 4,5 C 5,7 C 6,4 km/h (2 Bft)
25.05.2023 07:24 6,1 C 6,1 C 92 % 1027,0 hPa 0,0 l/m 4,1 km/h (1 Bft) N-NO 19 3 min 0,6 UV-I 154 W/m 4,9 C 6,1 C 6,4 km/h (2 Bft)
25.05.2023 07:27 6,3 C 6,1 C 92 % 1027,0 hPa 0,0 l/m 4,7 km/h (1 Bft) N-NO 32 3 min 0,6 UV-I 162 W/m 5,1 C 6,3 C 8,0 km/h (2 Bft)
25.05.2023 07:30 6,6 C 6,7 C 92 % 1027,0 hPa 0,0 l/m 5,5 km/h (1 Bft) N-NO 32 3 min 0,7 UV-I 169 W/m 5,4 C 6,6 C 8,0 km/h (2 Bft)
25.05.2023 07:33 7,1 C 6,7 C 92 % 1027,0 hPa 0,0 l/m 7,6 km/h (2 Bft) N 5 3 min 0,7 UV-I 177 W/m 5,9 C 6,1 C 14,5 km/h (3 Bft)
25.05.2023 07:37 7,3 C 7,2 C 91 % 1027,1 hPa 0,0 l/m 10,0 km/h (2 Bft) N-NO 30 4 min 0,7 UV-I 186 W/m 5,9 C 4,6 C 19,3 km/h (3 Bft)
25.05.2023 07:39 7,4 C 7,2 C 91 % 1027,1 hPa 0,0 l/m 11,8 km/h (2 Bft) N-NO 19 2 min 0,8 UV-I 194 W/m 6,0 C 3,6 C 16,1 km/h (3 Bft)
25.05.2023 07:42 7,7 C 7,2 C 91 % 1027,1 hPa 0,0 l/m 9,5 km/h (2 Bft) N 11 3 min 0,8 UV-I 200 W/m 6,3 C 5,4 C 19,3 km/h (3 Bft)
25.05.2023 07:45 7,9 C 7,2 C 90 % 1027,1 hPa 0,0 l/m 10,7 km/h (2 Bft) N-NO 30 3 min 0,8 UV-I 207 W/m 6,4 C 4,8 C 16,1 km/h (3 Bft)
25.05.2023 07:48 7,8 C 7,2 C 89 % 1027,7 hPa 0,0 l/m 7,1 km/h (2 Bft) N-NO 30 3 min 0,9 UV-I 215 W/m 6,1 C 7,2 C 14,5 km/h (3 Bft)
25.05.2023 07:51 7,9 C 7,8 C 89 % 1027,2 hPa 0,0 l/m 10,0 km/h (2 Bft) O-NO 61 3 min 0,9 UV-I 222 W/m 6,2 C 5,3 C 14,5 km/h (3 Bft)
25.05.2023 07:54 8,0 C 7,8 C 88 % 1027,2 hPa 0,0 l/m 5,7 km/h (1 Bft) NO 37 3 min 0,9 UV-I 229 W/m 6,1 C 8,0 C 12,9 km/h (3 Bft)
25.05.2023 07:57 8,0 C 8,3 C 87 % 1027,3 hPa 0,0 l/m 5,2 km/h (1 Bft) O-NO 65 3 min 1,0 UV-I 236 W/m 6,0 C 8,0 C 8,0 km/h (2 Bft)
25.05.2023 08:00 8,2 C 9,4 C 88 % 1027,3 hPa 0,0 l/m 3,3 km/h (1 Bft) NO 55 3 min 1,0 UV-I 243 W/m 6,3 C 8,2 C 6,4 km/h (2 Bft)
25.05.2023 08:03 8,3 C 9,4 C 87 % 1027,3 hPa 0,0 l/m 3,7 km/h (1 Bft) NO 53 3 min 1,1 UV-I 250 W/m 6,3 C 8,3 C 6,4 km/h (2 Bft)
25.05.2023 08:06 8,7 C 10,0 C 87 % 1027,3 hPa 0,0 l/m 6,6 km/h (2 Bft) N-NO 19 3 min 1,1 UV-I 258 W/m 6,7 C 8,6 C 9,7 km/h (2 Bft)
25.05.2023 08:09 9,0 C 10,0 C 86 % 1027,4 hPa 0,0 l/m 9,3 km/h (2 Bft) N-NO 24 3 min 1,1 UV-I 265 W/m 6,8 C 6,9 C 16,1 km/h (3 Bft)
25.05.2023 08:12 9,3 C 10,6 C 86 % 1027,5 hPa 0,0 l/m 9,4 km/h (2 Bft) N-NO 17 3 min 1,2 UV-I 275 W/m 7,1 C 7,2 C 20,9 km/h (4 Bft)
25.05.2023 08:15 9,4 C 10,6 C 85 % 1027,4 hPa 0,0 l/m 12,8 km/h (3 Bft) N 360 3 min 1,2 UV-I 281 W/m 7,0 C 5,4 C 22,5 km/h (4 Bft)
25.05.2023 08:18 9,4 C 10,6 C 85 % 1027,5 hPa 0,0 l/m 10,1 km/h (2 Bft) N 355 3 min 1,3 UV-I 295 W/m 7,0 C 6,9 C 16,1 km/h (3 Bft)
25.05.2023 08:21 9,6 C 10,6 C 85 % 1027,5 hPa 0,0 l/m 12,5 km/h (3 Bft) N 11 3 min 1,3 UV-I 297 W/m 7,2 C 5,8 C 17,7 km/h (3 Bft)
25.05.2023 08:24 9,7 C 11,1 C 84 % 1027,5 hPa 0,0 l/m 11,4 km/h (2 Bft) N-NO 31 3 min 1,4 UV-I 308 W/m 7,1 C 6,5 C 17,7 km/h (3 Bft)
25.05.2023 08:27 9,8 C 11,1 C 83 % 1027,4 hPa 0,0 l/m 9,6 km/h (2 Bft) NO 44 3 min 1,4 UV-I 325 W/m 7,1 C 7,6 C 19,3 km/h (3 Bft)
25.05.2023 08:30 9,9 C 11,1 C 83 % 1027,4 hPa 0,0 l/m 9,1 km/h (2 Bft) NO 49 3 min 1,5 UV-I 324 W/m 7,2 C 8,0 C 17,7 km/h (3 Bft)
25.05.2023 08:33 9,9 C 11,1 C 82 % 1027,5 hPa 0,0 l/m 12,0 km/h (2 Bft) NO 35 3 min 1,5 UV-I 335 W/m 7,0 C 6,4 C 20,9 km/h (4 Bft)
25.05.2023 08:36 9,8 C 11,1 C 81 % 1027,5 hPa 0,0 l/m 15,7 km/h (3 Bft) O-NO 57 3 min 1,6 UV-I 343 W/m 6,7 C 4,6 C 27,4 km/h (4 Bft)
25.05.2023 08:39 9,8 C 11,1 C 81 % 1027,5 hPa 0,0 l/m 14,7 km/h (3 Bft) NO 46 3 min 1,6 UV-I 356 W/m 6,7 C 5,0 C 20,9 km/h (4 Bft)
25.05.2023 08:42 9,9 C 11,1 C 81 % 1027,5 hPa 0,0 l/m 13,9 km/h (3 Bft) NO 34 3 min 1,7 UV-I 363 W/m 6,8 C 5,5 C 20,9 km/h (4 Bft)
25.05.2023 08:45 9,9 C 11,7 C 81 % 1027,6 hPa 0,0 l/m 17,2 km/h (3 Bft) O-NO 69 3 min 1,7 UV-I 376 W/m 6,8 C 4,1 C 24,1 km/h (4 Bft)
25.05.2023 08:48 10,1 C 11,7 C 81 % 1027,7 hPa 0,0 l/m 14,1 km/h (3 Bft) NO 35 3 min 1,8 UV-I 383 W/m 7,0 C 5,6 C 19,3 km/h (3 Bft)
25.05.2023 08:51 10,1 C 12,2 C 81 % 1027,7 hPa 0,0 l/m 14,0 km/h (3 Bft) NO 40 3 min 1,8 UV-I 400 W/m 7,0 C 5,7 C 19,3 km/h (3 Bft)
25.05.2023 08:54 10,2 C 12,2 C 81 % 1027,7 hPa 0,0 l/m 18,7 km/h (3 Bft) NO 37 3 min 1,9 UV-I 406 W/m 7,1 C 4,0 C 24,1 km/h (4 Bft)
25.05.2023 08:57 10,2 C 12,8 C 80 % 1027,6 hPa 0,0 l/m 16,2 km/h (3 Bft) N-NO 21 3 min 1,9 UV-I 410 W/m 6,9 C 4,9 C 22,5 km/h (4 Bft)
25.05.2023 09:00 10,3 C 13,3 C 80 % 1027,7 hPa 0,0 l/m 13,6 km/h (3 Bft) N-NO 25 3 min 1,9 UV-I 419 W/m 7,0 C 6,1 C 20,9 km/h (4 Bft)
25.05.2023 09:03 10,5 C 13,3 C 80 % 1027,7 hPa 0,0 l/m 15,8 km/h (3 Bft) NO 34 3 min 2,0 UV-I 428 W/m 7,2 C 5,4 C 22,5 km/h (4 Bft)
25.05.2023 09:06 10,6 C 13,3 C 80 % 1027,7 hPa 0,0 l/m 14,7 km/h (3 Bft) NO 35 3 min 2,1 UV-I 433 W/m 7,3 C 6,0 C 20,9 km/h (4 Bft)
25.05.2023 09:09 10,7 C 13,3 C 79 % 1027,6 hPa 0,0 l/m 13,2 km/h (3 Bft) NO 44 3 min 2,1 UV-I 443 W/m 7,2 C 6,8 C 19,3 km/h (3 Bft)
25.05.2023 09:12 10,7 C 13,3 C 79 % 1027,6 hPa 0,0 l/m 13,6 km/h (3 Bft) N 5 3 min 2,2 UV-I 451 W/m 7,2 C 6,6 C 19,3 km/h (3 Bft)
25.05.2023 09:15 10,8 C 13,3 C 78 % 1027,6 hPa 0,0 l/m 16,3 km/h (3 Bft) NO 45 3 min 2,2 UV-I 460 W/m 7,1 C 5,6 C 22,5 km/h (4 Bft)
25.05.2023 09:18 10,9 C 13,9 C 79 % 1027,7 hPa 0,0 l/m 14,4 km/h (3 Bft) NO 53 3 min 2,3 UV-I 471 W/m 7,4 C 6,5 C 25,7 km/h (4 Bft)
25.05.2023 09:21 10,9 C 13,3 C 78 % 1027,6 hPa 0,0 l/m 15,1 km/h (3 Bft) N-NO 28 3 min 2,3 UV-I 477 W/m 7,2 C 6,2 C 20,9 km/h (4 Bft)
25.05.2023 09:24 11,1 C 13,3 C 77 % 1027,7 hPa 0,0 l/m 14,6 km/h (3 Bft) NO 44 3 min 2,4 UV-I 485 W/m 7,2 C 6,6 C 20,9 km/h (4 Bft)
25.05.2023 09:27 11,1 C 13,3 C 77 % 1027,6 hPa 0,0 l/m 14,9 km/h (3 Bft) O-NO 76 3 min 2,5 UV-I 494 W/m 7,2 C 6,5 C 22,5 km/h (4 Bft)
25.05.2023 09:30 11,1 C 13,3 C 75 % 1027,6 hPa 0,0 l/m 16,7 km/h (3 Bft) N-NO 17 3 min 2,5 UV-I 491 W/m 6,8 C 5,8 C 27,4 km/h (4 Bft)
25.05.2023 09:33 11,2 C 13,9 C 75 % 1027,6 hPa 0,0 l/m 17,3 km/h (3 Bft) O-NO 57 3 min 2,6 UV-I 489 W/m 6,9 C 5,7 C 22,5 km/h (4 Bft)
25.05.2023 09:36 11,2 C 13,3 C 75 % 1027,6 hPa 0,0 l/m 16,1 km/h (3 Bft) O-NO 61 3 min 2,6 UV-I 488 W/m 6,9 C 6,2 C 24,1 km/h (4 Bft)
25.05.2023 09:39 11,4 C 13,3 C 73 % 1027,6 hPa 0,0 l/m 18,3 km/h (3 Bft) O-NO 57 3 min 2,7 UV-I 484 W/m 6,7 C 5,6 C 24,1 km/h (4 Bft)
25.05.2023 09:42 11,5 C 13,3 C 73 % 1027,7 hPa 0,0 l/m 17,9 km/h (3 Bft) NO 41 3 min 2,7 UV-I 483 W/m 6,8 C 5,9 C 29,0 km/h (5 Bft)
25.05.2023 09:45 11,5 C 13,3 C 72 % 1027,6 hPa 0,0 l/m 18,3 km/h (3 Bft) NO 51 3 min 2,8 UV-I 475 W/m 6,6 C 5,8 C 24,1 km/h (4 Bft)
25.05.2023 09:48 11,7 C 13,3 C 74 % 1027,5 hPa 0,0 l/m 13,7 km/h (3 Bft) NO 49 3 min 2,8 UV-I 455 W/m 7,2 C 7,7 C 20,9 km/h (4 Bft)
25.05.2023 09:51 12,1 C 13,9 C 73 % 1027,6 hPa 0,0 l/m 12,4 km/h (3 Bft) NO 55 3 min 3,0 UV-I 468 W/m 7,4 C 8,8 C 22,5 km/h (4 Bft)
25.05.2023 09:54 12,1 C 13,9 C 70 % 1027,6 hPa 0,0 l/m 19,5 km/h (3 Bft) N-NO 28 3 min 3,0 UV-I 466 W/m 6,8 C 6,1 C 29,0 km/h (5 Bft)
25.05.2023 09:57 12,1 C 14,4 C 71 % 1027,6 hPa 0,0 l/m 14,8 km/h (3 Bft) N 349 3 min 3,1 UV-I 461 W/m 7,0 C 7,8 C 22,5 km/h (4 Bft)
25.05.2023 10:00 12,4 C 15,0 C 71 % 1027,6 hPa 0,0 l/m 14,9 km/h (3 Bft) N-NO 22 3 min 3,1 UV-I 467 W/m 7,3 C 8,1 C 25,7 km/h (4 Bft)
25.05.2023 10:03 12,4 C 15,0 C 70 % 1027,6 hPa 0,0 l/m 14,4 km/h (3 Bft) N-NO 18 3 min 3,2 UV-I 471 W/m 7,1 C 8,3 C 22,5 km/h (4 Bft)
25.05.2023 10:06 12,5 C 14,4 C 70 % 1027,6 hPa 0,0 l/m 14,2 km/h (3 Bft) NO 36 3 min 3,2 UV-I 480 W/m 7,2 C 8,5 C 20,9 km/h (4 Bft)
25.05.2023 10:09 12,7 C 15,0 C 69 % 1027,7 hPa 0,0 l/m 11,8 km/h (2 Bft) N-NO 22 3 min 3,4 UV-I 514 W/m 7,2 C 9,7 C 20,9 km/h (4 Bft)
25.05.2023 10:12 13,1 C 15,6 C 70 % 1027,6 hPa 0,0 l/m 11,6 km/h (2 Bft) N-NO 18 3 min 3,5 UV-I 536 W/m 7,8 C 10,3 C 19,3 km/h (3 Bft)
25.05.2023 10:15 13,1 C 16,1 C 69 % 1027,7 hPa 0,0 l/m 10,1 km/h (2 Bft) NO 40 3 min 3,5 UV-I 543 W/m 7,5 C 11,0 C 17,7 km/h (3 Bft)
25.05.2023 10:18 13,4 C 16,7 C 68 % 1027,6 hPa 0,0 l/m 12,1 km/h (2 Bft) NO 36 3 min 3,5 UV-I 537 W/m 7,6 C 10,4 C 20,9 km/h (4 Bft)
25.05.2023 10:21 13,3 C 16,7 C 67 % 1027,7 hPa 0,0 l/m 13,8 km/h (3 Bft) N-NO 15 3 min 3,6 UV-I 563 W/m 7,3 C 9,6 C 25,7 km/h (4 Bft)
25.05.2023 10:24 12,9 C 15,6 C 66 % 1027,7 hPa 0,0 l/m 16,9 km/h (3 Bft) NO 51 3 min 3,2 UV-I 575 W/m 6,7 C 8,0 C 27,4 km/h (4 Bft)
25.05.2023 10:27 12,7 C 16,1 C 66 % 1027,7 hPa 0,0 l/m 18,9 km/h (3 Bft) NO 38 3 min 3,7 UV-I 624 W/m 6,5 C 7,1 C 27,4 km/h (4 Bft)
25.05.2023 10:30 12,7 C 15,6 C 65 % 1027,6 hPa 0,0 l/m 19,4 km/h (3 Bft) NO 40 3 min 3,6 UV-I 658 W/m 6,3 C 6,9 C 25,7 km/h (4 Bft)
25.05.2023 10:33 12,7 C 15,6 C 67 % 1027,8 hPa 0,0 l/m 15,5 km/h (3 Bft) N 351 3 min 3,6 UV-I 662 W/m 6,7 C 8,2 C 25,7 km/h (4 Bft)
25.05.2023 10:36 13,0 C 16,1 C 69 % 1027,8 hPa 0,0 l/m 15,4 km/h (3 Bft) O-NO 72 3 min 3,9 UV-I 662 W/m 7,4 C 8,6 C 22,5 km/h (4 Bft)
25.05.2023 10:39 13,4 C 16,7 C 68 % 1027,7 hPa 0,0 l/m 10,7 km/h (2 Bft) N-NW 348 3 min 4,0 UV-I 692 W/m 7,6 C 11,0 C 17,7 km/h (3 Bft)
25.05.2023 10:42 13,4 C 17,2 C 68 % 1027,8 hPa 0,0 l/m 16,7 km/h (3 Bft) N-NW 347 3 min 3,6 UV-I 700 W/m 7,6 C 8,7 C 25,7 km/h (4 Bft)
25.05.2023 10:45 13,7 C 17,8 C 69 % 1027,8 hPa 0,0 l/m 13,8 km/h (3 Bft) N 355 3 min 4,1 UV-I 696 W/m 8,1 C 10,1 C 25,7 km/h (4 Bft)
25.05.2023 10:48 13,7 C 18,3 C 67 % 1027,8 hPa 0,0 l/m 14,4 km/h (3 Bft) N-NO 15 3 min 4,1 UV-I 690 W/m 7,7 C 9,8 C 22,5 km/h (4 Bft)
25.05.2023 10:51 13,7 C 18,9 C 67 % 1027,8 hPa 0,0 l/m 17,1 km/h (3 Bft) N-NO 14 3 min 4,2 UV-I 691 W/m 7,7 C 8,9 C 27,4 km/h (4 Bft)
25.05.2023 10:54 13,4 C 18,3 C 67 % 1027,9 hPa 0,0 l/m 16,4 km/h (3 Bft) NO 54 3 min 4,3 UV-I 700 W/m 7,4 C 8,8 C 27,4 km/h (4 Bft)
25.05.2023 10:57 13,5 C 18,3 C 66 % 1027,9 hPa 0,0 l/m 16,3 km/h (3 Bft) N-NO 27 3 min 4,3 UV-I 703 W/m 7,3 C 8,9 C 27,4 km/h (4 Bft)
25.05.2023 11:00 13,4 C 18,3 C 64 % 1027,7 hPa 0,0 l/m 19,8 km/h (3 Bft) NO 38 3 min 4,3 UV-I 706 W/m 6,7 C 7,7 C 27,4 km/h (4 Bft)
25.05.2023 11:03 13,4 C 18,3 C 66 % 1027,7 hPa 0,0 l/m 18,2 km/h (3 Bft) N-NO 28 3 min 4,4 UV-I 712 W/m 7,2 C 8,2 C 25,7 km/h (4 Bft)
25.05.2023 11:06 13,7 C 18,9 C 68 % 1027,8 hPa 0,0 l/m 16,6 km/h (3 Bft) N-NO 29 3 min 4,4 UV-I 719 W/m 7,9 C 9,1 C 22,5 km/h (4 Bft)
25.05.2023 11:09 13,8 C 19,4 C 65 % 1028,0 hPa 0,0 l/m 17,9 km/h (3 Bft) NO 44 3 min 4,5 UV-I 733 W/m 7,3 C 8,8 C 25,7 km/h (4 Bft)
25.05.2023 11:12 13,6 C 20,0 C 66 % 1028,0 hPa 0,0 l/m 17,2 km/h (3 Bft) NO 52 3 min 4,5 UV-I 741 W/m 7,4 C 8,8 C 24,1 km/h (4 Bft)
25.05.2023 11:15 13,9 C 21,1 C 65 % 1028,0 hPa 0,0 l/m 19,3 km/h (3 Bft) N-NO 28 3 min 4,7 UV-I 739 W/m 7,4 C 8,5 C 27,4 km/h (4 Bft)
25.05.2023 11:18 13,9 C 21,7 C 67 % 1028,0 hPa 0,0 l/m 13,6 km/h (3 Bft) N 355 3 min 4,7 UV-I 754 W/m 7,9 C 10,4 C 25,7 km/h (4 Bft)
25.05.2023 11:21 14,2 C 22,2 C 67 % 1027,9 hPa 0,0 l/m 13,1 km/h (3 Bft) N 5 3 min 4,8 UV-I 766 W/m 8,2 C 10,9 C 22,5 km/h (4 Bft)
25.05.2023 11:24 14,3 C 22,2 C 66 % 1027,9 hPa 0,0 l/m 17,7 km/h (3 Bft) N 355 3 min 4,9 UV-I 804 W/m 8,0 C 9,5 C 27,4 km/h (4 Bft)
25.05.2023 11:27 14,2 C 21,7 C 67 % 1028,0 hPa 0,0 l/m 20,0 km/h (4 Bft) N-NO 24 3 min 4,8 UV-I 804 W/m 8,2 C 8,7 C 25,7 km/h (4 Bft)
25.05.2023 11:30 13,8 C 20,6 C 66 % 1028,0 hPa 0,0 l/m 17,1 km/h (3 Bft) N-NO 24 3 min 4,5 UV-I 788 W/m 7,6 C 9,0 C 22,5 km/h (4 Bft)
25.05.2023 11:33 13,9 C 21,7 C 67 % 1028,0 hPa 0,0 l/m 11,7 km/h (2 Bft) N-NO 18 3 min 4,9 UV-I 785 W/m 7,9 C 11,1 C 20,9 km/h (4 Bft)
25.05.2023 11:36 14,0 C 21,1 C 65 % 1027,9 hPa 0,0 l/m 16,6 km/h (3 Bft) NO 55 3 min 4,4 UV-I 770 W/m 7,5 C 9,4 C 25,7 km/h (4 Bft)
25.05.2023 11:39 13,9 C 21,7 C 65 % 1028,0 hPa 0,0 l/m 15,0 km/h (3 Bft) N-NO 23 3 min 5,1 UV-I 780 W/m 7,4 C 9,9 C 22,5 km/h (4 Bft)
25.05.2023 11:42 14,1 C 21,1 C 65 % 1028,0 hPa 0,0 l/m 17,8 km/h (3 Bft) N-NW 331 3 min 4,6 UV-I 800 W/m 7,6 C 9,2 C 27,4 km/h (4 Bft)
25.05.2023 11:45 13,9 C 21,1 C 65 % 1027,9 hPa 0,0 l/m 16,7 km/h (3 Bft) N-NW 343 3 min 4,4 UV-I 786 W/m 7,4 C 9,3 C 24,1 km/h (4 Bft)
25.05.2023 11:48 14,2 C 22,2 C 64 % 1027,9 hPa 0,0 l/m 16,2 km/h (3 Bft) N-NO 32 3 min 5,2 UV-I 789 W/m 7,5 C 9,8 C 24,1 km/h (4 Bft)
25.05.2023 11:51 14,3 C 21,7 C 62 % 1027,8 hPa 0,0 l/m 19,1 km/h (3 Bft) NO 42 3 min 5,3 UV-I 802 W/m 7,1 C 9,1 C 32,2 km/h (5 Bft)
25.05.2023 11:54 14,2 C 21,1 C 63 % 1027,8 hPa 0,0 l/m 14,7 km/h (3 Bft) NO 42 3 min 5,4 UV-I 804 W/m 7,3 C 10,3 C 24,1 km/h (4 Bft)
25.05.2023 11:57 14,3 C 21,1 C 63 % 1027,9 hPa 0,0 l/m 18,6 km/h (3 Bft) NO 56 3 min 5,4 UV-I 802 W/m 7,4 C 9,2 C 29,0 km/h (5 Bft)
25.05.2023 12:00 14,3 C 21,1 C 64 % 1027,9 hPa 0,0 l/m 14,4 km/h (3 Bft) N-NO 23 3 min 5,4 UV-I 804 W/m 7,6 C 10,6 C 19,3 km/h (3 Bft)
25.05.2023 12:03 14,7 C 22,2 C 64 % 1027,7 hPa 0,0 l/m 14,6 km/h (3 Bft) N-NO 13 3 min 5,5 UV-I 808 W/m 8,0 C 11,0 C 24,1 km/h (4 Bft)
25.05.2023 12:06 15,1 C 22,2 C 65 % 1027,9 hPa 0,0 l/m 14,5 km/h (3 Bft) O-NO 61 3 min 5,6 UV-I 812 W/m 8,6 C 11,5 C 22,5 km/h (4 Bft)
25.05.2023 12:09 15,0 C 23,3 C 64 % 1027,9 hPa 0,0 l/m 18,3 km/h (3 Bft) N-NO 24 3 min 5,6 UV-I 817 W/m 8,2 C 10,2 C 24,1 km/h (4 Bft)
25.05.2023 12:12 14,9 C 22,2 C 62 % 1027,9 hPa 0,0 l/m 18,3 km/h (3 Bft) NO 38 3 min 5,6 UV-I 821 W/m 7,7 C 10,1 C 24,1 km/h (4 Bft)
25.05.2023 12:15 14,9 C 22,2 C 63 % 1027,9 hPa 0,0 l/m 19,6 km/h (3 Bft) N 355 3 min 5,7 UV-I 821 W/m 7,9 C 9,7 C 27,4 km/h (4 Bft)
25.05.2023 12:18 15,0 C 22,8 C 64 % 1027,9 hPa 0,0 l/m 19,5 km/h (3 Bft) N-NO 20 3 min 5,7 UV-I 820 W/m 8,2 C 9,9 C 25,7 km/h (4 Bft)
25.05.2023 12:21 15,1 C 23,3 C 62 % 1027,9 hPa 0,0 l/m 16,2 km/h (3 Bft) N-NW 340 3 min 5,8 UV-I 825 W/m 7,9 C 10,9 C 24,1 km/h (4 Bft)
25.05.2023 12:24 14,8 C 22,8 C 61 % 1027,9 hPa 0,0 l/m 18,9 km/h (3 Bft) N-NO 24 3 min 5,8 UV-I 827 W/m 7,4 C 9,8 C 25,7 km/h (4 Bft)
25.05.2023 12:27 14,8 C 23,3 C 63 % 1027,9 hPa 0,0 l/m 14,1 km/h (3 Bft) N 5 3 min 5,8 UV-I 830 W/m 7,8 C 11,3 C 22,5 km/h (4 Bft)
25.05.2023 12:30 14,8 C 22,8 C 63 % 1028,0 hPa 0,0 l/m 22,3 km/h (4 Bft) N-NO 26 3 min 5,8 UV-I 834 W/m 7,8 C 8,9 C 33,8 km/h (5 Bft)
25.05.2023 12:33 14,9 C 23,3 C 63 % 1027,9 hPa 0,0 l/m 13,0 km/h (3 Bft) N-NO 17 3 min 5,8 UV-I 839 W/m 7,9 C 11,8 C 19,3 km/h (3 Bft)
25.05.2023 12:36 15,3 C 24,4 C 63 % 1027,9 hPa 0,0 l/m 12,6 km/h (3 Bft) N 9 3 min 5,9 UV-I 843 W/m 8,3 C 12,4 C 19,3 km/h (3 Bft)
25.05.2023 12:39 15,3 C 23,9 C 61 % 1027,9 hPa 0,0 l/m 14,1 km/h (3 Bft) NO 35 3 min 6,0 UV-I 849 W/m 7,8 C 11,9 C 24,1 km/h (4 Bft)
25.05.2023 12:42 15,6 C 23,9 C 66 % 1027,9 hPa 0,0 l/m 14,6 km/h (3 Bft) N-NO 19 3 min 6,1 UV-I 854 W/m 9,3 C 12,0 C 22,5 km/h (4 Bft)
25.05.2023 12:45 15,4 C 24,4 C 64 % 1027,9 hPa 0,0 l/m 17,4 km/h (3 Bft) N 11 3 min 6,1 UV-I 858 W/m 8,6 C 11,0 C 29,0 km/h (5 Bft)
25.05.2023 12:48 15,7 C 24,4 C 63 % 1028,0 hPa 0,0 l/m 13,6 km/h (3 Bft) N-NO 23 3 min 6,1 UV-I 853 W/m 8,7 C 12,5 C 22,5 km/h (4 Bft)
25.05.2023 12:51 15,7 C 24,4 C 65 % 1028,0 hPa 0,0 l/m 15,6 km/h (3 Bft) NO 54 3 min 6,1 UV-I 853 W/m 9,1 C 11,9 C 20,9 km/h (4 Bft)
25.05.2023 12:54 15,4 C 23,3 C 64 % 1028,0 hPa 0,0 l/m 18,0 km/h (3 Bft) N 5 3 min 6,2 UV-I 863 W/m 8,6 C 10,8 C 25,7 km/h (4 Bft)
25.05.2023 12:57 15,4 C 25,0 C 67 % 1027,9 hPa 0,0 l/m 17,6 km/h (3 Bft) N-NW 342 3 min 6,1 UV-I 856 W/m 9,3 C 10,9 C 25,7 km/h (4 Bft)
25.05.2023 13:00 15,6 C 25,6 C 66 % 1027,9 hPa 0,0 l/m 10,7 km/h (2 Bft) N 5 3 min 6,1 UV-I 855 W/m 9,3 C 13,5 C 17,7 km/h (3 Bft)
25.05.2023 13:03 15,7 C 25,0 C 65 % 1028,0 hPa 0,0 l/m 11,6 km/h (2 Bft) NO 54 3 min 6,3 UV-I 862 W/m 9,1 C 13,2 C 19,3 km/h (3 Bft)
25.05.2023 13:06 15,9 C 25,6 C 67 % 1028,0 hPa 0,0 l/m 11,6 km/h (2 Bft) N-NO 27 3 min 6,3 UV-I 865 W/m 9,8 C 13,5 C 19,3 km/h (3 Bft)
25.05.2023 13:09 16,1 C 26,1 C 66 % 1027,9 hPa 0,0 l/m 15,0 km/h (3 Bft) N-NO 15 3 min 6,3 UV-I 871 W/m 9,7 C 12,5 C 22,5 km/h (4 Bft)
25.05.2023 13:12 16,1 C 26,1 C 66 % 1028,0 hPa 0,0 l/m 15,8 km/h (3 Bft) N 5 3 min 6,3 UV-I 859 W/m 9,7 C 12,3 C 27,4 km/h (4 Bft)
25.05.2023 13:15 15,6 C 26,1 C 62 % 1028,0 hPa 0,0 l/m 19,6 km/h (3 Bft) N 349 3 min 6,3 UV-I 865 W/m 8,3 C 10,6 C 29,0 km/h (5 Bft)
25.05.2023 13:18 15,6 C 25,6 C 62 % 1027,9 hPa 0,0 l/m 19,2 km/h (3 Bft) N-NW 348 3 min 6,3 UV-I 861 W/m 8,3 C 10,7 C 27,4 km/h (4 Bft)
25.05.2023 13:21 15,4 C 25,6 C 64 % 1027,9 hPa 0,0 l/m 17,5 km/h (3 Bft) N-NW 347 3 min 6,3 UV-I 872 W/m 8,6 C 10,9 C 24,1 km/h (4 Bft)
25.05.2023 13:24 15,4 C 25,6 C 66 % 1027,8 hPa 0,0 l/m 14,5 km/h (3 Bft) N-NW 344 3 min 6,3 UV-I 870 W/m 9,1 C 11,8 C 25,7 km/h (4 Bft)
25.05.2023 13:27 15,3 C 25,6 C 63 % 1027,9 hPa 0,0 l/m 19,0 km/h (3 Bft) N 350 3 min 6,3 UV-I 864 W/m 8,3 C 10,4 C 30,6 km/h (5 Bft)
25.05.2023 13:30 15,4 C 25,0 C 66 % 1027,8 hPa 0,0 l/m 19,3 km/h (3 Bft) N 355 3 min 6,2 UV-I 861 W/m 9,1 C 10,4 C 29,0 km/h (5 Bft)
25.05.2023 13:33 15,4 C 25,0 C 67 % 1027,9 hPa 0,0 l/m 14,9 km/h (3 Bft) N 360 3 min 6,3 UV-I 872 W/m 9,3 C 11,7 C 27,4 km/h (4 Bft)
25.05.2023 13:36 15,4 C 25,6 C 64 % 1027,8 hPa 0,0 l/m 21,8 km/h (4 Bft) N-NW 348 3 min 6,3 UV-I 881 W/m 8,6 C 9,8 C 30,6 km/h (5 Bft)
25.05.2023 13:39 15,4 C 26,1 C 67 % 1027,8 hPa 0,0 l/m 16,5 km/h (3 Bft) N-NO 27 3 min 6,3 UV-I 881 W/m 9,3 C 11,2 C 27,4 km/h (4 Bft)
25.05.2023 13:42 15,7 C 26,1 C 66 % 1027,8 hPa 0,0 l/m 19,1 km/h (3 Bft) N-NW 346 3 min 6,2 UV-I 868 W/m 9,4 C 10,9 C 29,0 km/h (5 Bft)
25.05.2023 13:45 15,7 C 26,1 C 64 % 1027,8 hPa 0,0 l/m 18,8 km/h (3 Bft) N 350 3 min 6,2 UV-I 872 W/m 8,9 C 11,0 C 27,4 km/h (4 Bft)
25.05.2023 13:48 15,6 C 26,7 C 64 % 1027,8 hPa 0,0 l/m 17,8 km/h (3 Bft) N 360 3 min 6,3 UV-I 879 W/m 8,8 C 11,1 C 27,4 km/h (4 Bft)
25.05.2023 13:51 15,9 C 27,2 C 66 % 1027,8 hPa 0,0 l/m 13,9 km/h (3 Bft) N-NO 12 3 min 6,3 UV-I 879 W/m 9,6 C 12,6 C 24,1 km/h (4 Bft)
25.05.2023 13:54 15,8 C 27,8 C 65 % 1027,8 hPa 0,0 l/m 16,5 km/h (3 Bft) N 5 3 min 6,2 UV-I 873 W/m 9,2 C 11,7 C 22,5 km/h (4 Bft)
25.05.2023 13:57 15,7 C 27,2 C 66 % 1027,8 hPa 0,0 l/m 17,3 km/h (3 Bft) NO 37 3 min 6,4 UV-I 897 W/m 9,4 C 11,4 C 24,1 km/h (4 Bft)
25.05.2023 14:00 15,8 C 26,1 C 67 % 1027,8 hPa 0,0 l/m 18,8 km/h (3 Bft) N-NW 337 3 min 6,4 UV-I 918 W/m 9,7 C 11,1 C 27,4 km/h (4 Bft)
25.05.2023 14:03 15,4 C 25,0 C 66 % 1027,8 hPa 0,0 l/m 12,0 km/h (2 Bft) N-NO 19 3 min 5,6 UV-I 939 W/m 9,1 C 12,7 C 22,5 km/h (4 Bft)
25.05.2023 14:06 15,4 C 24,4 C 65 % 1027,8 hPa 0,0 l/m 20,0 km/h (4 Bft) N-NW 342 3 min 5,1 UV-I 943 W/m 8,9 C 10,3 C 29,0 km/h (5 Bft)
25.05.2023 14:09 15,1 C 22,2 C 65 % 1027,7 hPa 0,0 l/m 16,6 km/h (3 Bft) NW 325 0 min 4,6 UV-I 451 W/m 8,6 C 10,8 C 27,4 km/h (4 Bft)
25.05.2023 14:12 15,4 C 22,8 C 67 % 1027,7 hPa 0,0 l/m 18,2 km/h (3 Bft) N-NW 344 3 min 4,5 UV-I 930 W/m 9,3 C 10,7 C 29,0 km/h (5 Bft)
25.05.2023 14:15 15,1 C 22,2 C 65 % 1027,8 hPa 0,0 l/m 23,5 km/h (4 Bft) N 360 0 min 4,7 UV-I 448 W/m 8,6 C 9,1 C 29,0 km/h (5 Bft)
25.05.2023 14:18 15,6 C 25,6 C 66 % 1027,7 hPa 0,0 l/m 17,3 km/h (3 Bft) N-NO 28 3 min 6,1 UV-I 925 W/m 9,3 C 11,2 C 24,1 km/h (4 Bft)
25.05.2023 14:21 15,8 C 26,1 C 65 % 1027,6 hPa 0,0 l/m 17,2 km/h (3 Bft) N-NW 345 3 min 6,2 UV-I 918 W/m 9,2 C 11,5 C 24,1 km/h (4 Bft)
25.05.2023 14:24 15,8 C 26,7 C 65 % 1027,7 hPa 0,0 l/m 19,0 km/h (3 Bft) N-NW 340 3 min 6,2 UV-I 900 W/m 9,2 C 11,0 C 27,4 km/h (4 Bft)
25.05.2023 14:27 15,7 C 27,2 C 65 % 1027,6 hPa 0,0 l/m 20,4 km/h (4 Bft) N-NW 338 3 min 6,0 UV-I 865 W/m 9,1 C 10,6 C 25,7 km/h (4 Bft)
25.05.2023 14:30 15,8 C 27,2 C 65 % 1027,7 hPa 0,0 l/m 17,7 km/h (3 Bft) N-NW 345 3 min 6,0 UV-I 870 W/m 9,2 C 11,4 C 29,0 km/h (5 Bft)
25.05.2023 14:33 15,7 C 26,7 C 63 % 1027,7 hPa 0,0 l/m 16,8 km/h (3 Bft) N-NW 333 3 min 6,0 UV-I 865 W/m 8,7 C 11,5 C 24,1 km/h (4 Bft)
25.05.2023 14:36 16,0 C 26,1 C 65 % 1027,7 hPa 0,0 l/m 16,3 km/h (3 Bft) N 5 3 min 6,0 UV-I 874 W/m 9,4 C 12,0 C 24,1 km/h (4 Bft)
25.05.2023 14:39 16,2 C 26,7 C 64 % 1027,8 hPa 0,0 l/m 17,6 km/h (3 Bft) NO 42 3 min 6,1 UV-I 883 W/m 9,4 C 11,9 C 27,4 km/h (4 Bft)
25.05.2023 14:42 16,1 C 27,2 C 65 % 1027,7 hPa 0,0 l/m 16,9 km/h (3 Bft) N-NO 12 3 min 6,1 UV-I 883 W/m 9,5 C 12,0 C 24,1 km/h (4 Bft)
25.05.2023 14:45 15,8 C 27,2 C 62 % 1027,8 hPa 0,0 l/m 17,1 km/h (3 Bft) N 5 3 min 5,9 UV-I 859 W/m 8,5 C 11,5 C 25,7 km/h (4 Bft)
25.05.2023 14:48 15,8 C 26,7 C 64 % 1027,7 hPa 0,0 l/m 17,7 km/h (3 Bft) N-NW 329 3 min 5,8 UV-I 852 W/m 9,0 C 11,4 C 25,7 km/h (4 Bft)
25.05.2023 14:51 16,0 C 26,1 C 64 % 1027,7 hPa 0,0 l/m 18,4 km/h (3 Bft) N-NO 22 3 min 5,4 UV-I 889 W/m 9,2 C 11,4 C 29,0 km/h (5 Bft)
25.05.2023 14:54 15,8 C 25,6 C 64 % 1027,7 hPa 0,0 l/m 20,7 km/h (4 Bft) N 10 3 min 5,4 UV-I 647 W/m 9,0 C 10,6 C 29,0 km/h (5 Bft)
25.05.2023 14:57 15,9 C 26,1 C 65 % 1027,7 hPa 0,0 l/m 18,1 km/h (3 Bft) N-NO 19 3 min 5,9 UV-I 858 W/m 9,3 C 11,4 C 32,2 km/h (5 Bft)
25.05.2023 15:00 16,1 C 26,1 C 68 % 1027,7 hPa 0,0 l/m 18,2 km/h (3 Bft) N-NO 19 3 min 5,9 UV-I 862 W/m 10,2 C 11,6 C 29,0 km/h (5 Bft)
25.05.2023 15:03 16,1 C 26,1 C 64 % 1027,6 hPa 0,0 l/m 18,9 km/h (3 Bft) N-NO 26 3 min 6,0 UV-I 881 W/m 9,3 C 11,4 C 30,6 km/h (5 Bft)
25.05.2023 15:06 16,0 C 26,1 C 63 % 1027,7 hPa 0,0 l/m 18,1 km/h (3 Bft) N 360 3 min 5,7 UV-I 844 W/m 9,0 C 11,5 C 25,7 km/h (4 Bft)
25.05.2023 15:09 15,8 C 25,6 C 65 % 1027,6 hPa 0,0 l/m 16,4 km/h (3 Bft) N 355 3 min 5,8 UV-I 846 W/m 9,2 C 11,7 C 20,9 km/h (4 Bft)
25.05.2023 15:12 16,2 C 26,1 C 67 % 1027,6 hPa 0,0 l/m 17,6 km/h (3 Bft) N 355 3 min 5,7 UV-I 835 W/m 10,1 C 11,9 C 25,7 km/h (4 Bft)
25.05.2023 15:15 15,9 C 25,6 C 65 % 1027,6 hPa 0,0 l/m 19,1 km/h (3 Bft) N 350 3 min 5,7 UV-I 841 W/m 9,3 C 11,1 C 30,6 km/h (5 Bft)
25.05.2023 15:18 15,8 C 25,6 C 64 % 1027,6 hPa 0,0 l/m 16,2 km/h (3 Bft) N-NO 26 3 min 5,6 UV-I 829 W/m 9,0 C 11,8 C 24,1 km/h (4 Bft)
25.05.2023 15:21 15,7 C 25,0 C 66 % 1027,6 hPa 0,0 l/m 16,6 km/h (3 Bft) N 5 3 min 5,5 UV-I 811 W/m 9,4 C 11,6 C 30,6 km/h (5 Bft)
25.05.2023 15:24 15,6 C 24,4 C 63 % 1027,5 hPa 0,0 l/m 22,9 km/h (4 Bft) N 349 3 min 5,5 UV-I 805 W/m 8,6 C 9,9 C 32,2 km/h (5 Bft)
25.05.2023 15:27 15,8 C 24,4 C 68 % 1027,5 hPa 0,0 l/m 14,1 km/h (3 Bft) N 350 3 min 5,4 UV-I 801 W/m 9,9 C 12,5 C 20,9 km/h (4 Bft)
25.05.2023 15:30 16,2 C 24,4 C 68 % 1027,4 hPa 0,0 l/m 15,2 km/h (3 Bft) NO 34 3 min 5,4 UV-I 794 W/m 10,3 C 12,6 C 24,1 km/h (4 Bft)
25.05.2023 15:33 16,2 C 24,4 C 63 % 1027,5 hPa 0,0 l/m 17,2 km/h (3 Bft) N-NO 16 3 min 5,3 UV-I 788 W/m 9,1 C 12,0 C 24,1 km/h (4 Bft)
25.05.2023 15:36 15,9 C 25,6 C 64 % 1027,5 hPa 0,0 l/m 18,1 km/h (3 Bft) N 355 3 min 5,3 UV-I 789 W/m 9,1 C 11,4 C 25,7 km/h (4 Bft)
25.05.2023 15:39 16,2 C 26,7 C 65 % 1027,4 hPa 0,0 l/m 12,7 km/h (3 Bft) N-NO 28 3 min 5,2 UV-I 784 W/m 9,6 C 13,4 C 20,9 km/h (4 Bft)
25.05.2023 15:42 16,2 C 26,1 C 64 % 1027,4 hPa 0,0 l/m 13,4 km/h (3 Bft) N 5 3 min 5,1 UV-I 766 W/m 9,4 C 13,2 C 19,3 km/h (3 Bft)
25.05.2023 15:45 16,1 C 26,1 C 64 % 1027,5 hPa 0,0 l/m 15,4 km/h (3 Bft) N-NW 346 3 min 5,2 UV-I 795 W/m 9,3 C 12,4 C 25,7 km/h (4 Bft)
25.05.2023 15:48 16,0 C 26,7 C 63 % 1027,5 hPa 0,0 l/m 19,9 km/h (4 Bft) N-NO 24 3 min 5,1 UV-I 777 W/m 9,0 C 11,1 C 29,0 km/h (5 Bft)
25.05.2023 15:51 16,1 C 27,2 C 65 % 1027,4 hPa 0,0 l/m 16,2 km/h (3 Bft) N 5 3 min 5,0 UV-I 760 W/m 9,5 C 12,2 C 24,1 km/h (4 Bft)
25.05.2023 15:54 16,4 C 27,2 C 66 % 1027,4 hPa 0,0 l/m 13,9 km/h (3 Bft) N-NO 16 3 min 5,0 UV-I 758 W/m 10,0 C 13,2 C 20,9 km/h (4 Bft)
25.05.2023 15:57 16,2 C 27,2 C 63 % 1027,5 hPa 0,0 l/m 14,8 km/h (3 Bft) N-NO 16 3 min 4,9 UV-I 747 W/m 9,1 C 12,7 C 22,5 km/h (4 Bft)
25.05.2023 16:00 16,2 C 26,7 C 64 % 1027,4 hPa 0,0 l/m 18,5 km/h (3 Bft) N-NW 344 3 min 4,9 UV-I 750 W/m 9,4 C 11,7 C 25,7 km/h (4 Bft)
25.05.2023 16:03 15,9 C 26,7 C 64 % 1027,5 hPa 0,0 l/m 18,4 km/h (3 Bft) N-NO 19 3 min 4,8 UV-I 742 W/m 9,1 C 11,3 C 24,1 km/h (4 Bft)
25.05.2023 16:06 16,2 C 26,7 C 64 % 1027,4 hPa 0,0 l/m 15,2 km/h (3 Bft) N 360 3 min 4,7 UV-I 738 W/m 9,4 C 12,6 C 25,7 km/h (4 Bft)
25.05.2023 16:09 16,2 C 26,7 C 63 % 1027,4 hPa 0,0 l/m 17,9 km/h (3 Bft) N-NO 16 3 min 4,7 UV-I 732 W/m 9,1 C 11,8 C 24,1 km/h (4 Bft)
25.05.2023 16:12 16,2 C 26,1 C 66 % 1027,5 hPa 0,0 l/m 15,2 km/h (3 Bft) N-NO 26 3 min 4,6 UV-I 724 W/m 9,8 C 12,6 C 24,1 km/h (4 Bft)
25.05.2023 16:15 16,2 C 26,7 C 66 % 1027,4 hPa 0,0 l/m 13,3 km/h (3 Bft) N 355 3 min 4,5 UV-I 714 W/m 9,8 C 13,2 C 24,1 km/h (4 Bft)
25.05.2023 16:18 16,2 C 26,1 C 64 % 1027,4 hPa 0,0 l/m 15,3 km/h (3 Bft) N-NW 348 3 min 4,5 UV-I 712 W/m 9,4 C 12,6 C 24,1 km/h (4 Bft)
25.05.2023 16:21 16,3 C 26,1 C 65 % 1027,5 hPa 0,0 l/m 15,2 km/h (3 Bft) N 355 3 min 4,4 UV-I 705 W/m 9,7 C 12,7 C 20,9 km/h (4 Bft)
25.05.2023 16:24 16,2 C 25,0 C 64 % 1027,5 hPa 0,0 l/m 15,1 km/h (3 Bft) N 5 3 min 4,3 UV-I 694 W/m 9,4 C 12,6 C 24,1 km/h (4 Bft)
25.05.2023 16:27 15,9 C 25,0 C 62 % 1027,4 hPa 0,0 l/m 17,6 km/h (3 Bft) N-NW 337 3 min 4,3 UV-I 693 W/m 8,6 C 11,5 C 25,7 km/h (4 Bft)
25.05.2023 16:30 16,0 C 25,6 C 64 % 1027,4 hPa 0,0 l/m 13,2 km/h (3 Bft) N 5 3 min 4,2 UV-I 689 W/m 9,2 C 13,0 C 20,9 km/h (4 Bft)
25.05.2023 16:33 16,1 C 25,6 C 65 % 1027,3 hPa 0,0 l/m 15,6 km/h (3 Bft) N-NW 345 3 min 4,2 UV-I 685 W/m 9,5 C 12,3 C 25,7 km/h (4 Bft)
25.05.2023 16:36 16,1 C 25,6 C 65 % 1027,4 hPa 0,0 l/m 16,9 km/h (3 Bft) N 350 3 min 4,1 UV-I 682 W/m 9,5 C 12,0 C 27,4 km/h (4 Bft)
25.05.2023 16:39 15,9 C 25,0 C 66 % 1027,4 hPa 0,0 l/m 17,0 km/h (3 Bft) N-NW 346 3 min 4,0 UV-I 677 W/m 9,6 C 11,7 C 25,7 km/h (4 Bft)
25.05.2023 16:42 16,1 C 25,0 C 65 % 1027,3 hPa 0,0 l/m 15,2 km/h (3 Bft) N 350 3 min 4,0 UV-I 669 W/m 9,5 C 12,5 C 20,9 km/h (4 Bft)
25.05.2023 16:45 16,2 C 25,6 C 64 % 1027,3 hPa 0,0 l/m 13,2 km/h (3 Bft) N 355 3 min 3,9 UV-I 658 W/m 9,4 C 13,2 C 20,9 km/h (4 Bft)
25.05.2023 16:48 16,1 C 25,0 C 63 % 1027,3 hPa 0,0 l/m 13,5 km/h (3 Bft) N-NO 25 3 min 3,8 UV-I 652 W/m 9,1 C 13,0 C 22,5 km/h (4 Bft)
25.05.2023 16:51 16,1 C 24,4 C 66 % 1027,3 hPa 0,0 l/m 13,9 km/h (3 Bft) N-NO 19 3 min 3,8 UV-I 637 W/m 9,7 C 12,9 C 20,9 km/h (4 Bft)
25.05.2023 16:54 16,1 C 25,6 C 64 % 1027,3 hPa 0,0 l/m 15,3 km/h (3 Bft) N-NO 18 3 min 3,7 UV-I 632 W/m 9,3 C 12,4 C 20,9 km/h (4 Bft)
25.05.2023 16:57 16,1 C 25,6 C 65 % 1027,3 hPa 0,0 l/m 16,3 km/h (3 Bft) N 9 3 min 3,6 UV-I 629 W/m 9,5 C 12,1 C 20,9 km/h (4 Bft)
25.05.2023 17:00 16,1 C 25,6 C 66 % 1027,4 hPa 0,0 l/m 13,7 km/h (3 Bft) N 5 3 min 3,5 UV-I 616 W/m 9,7 C 12,9 C 24,1 km/h (4 Bft)
25.05.2023 17:03 15,9 C 23,9 C 66 % 1027,4 hPa 0,0 l/m 13,1 km/h (3 Bft) N-NO 19 3 min 3,0 UV-I 416 W/m 9,6 C 12,9 C 24,1 km/h (4 Bft)
25.05.2023 17:06 15,7 C 24,4 C 65 % 1027,3 hPa 0,0 l/m 16,5 km/h (3 Bft) N-NO 19 3 min 3,5 UV-I 589 W/m 9,1 C 11,6 C 22,5 km/h (4 Bft)
25.05.2023 17:09 15,9 C 25,0 C 66 % 1027,3 hPa 0,0 l/m 15,4 km/h (3 Bft) N 11 3 min 3,4 UV-I 602 W/m 9,6 C 12,2 C 25,7 km/h (4 Bft)
25.05.2023 17:12 15,8 C 25,0 C 65 % 1027,4 hPa 0,0 l/m 14,6 km/h (3 Bft) N 11 3 min 3,3 UV-I 590 W/m 9,2 C 12,3 C 19,3 km/h (3 Bft)
25.05.2023 17:15 15,9 C 25,6 C 66 % 1027,2 hPa 0,0 l/m 10,6 km/h (2 Bft) N 355 3 min 3,2 UV-I 573 W/m 9,6 C 13,9 C 17,7 km/h (3 Bft)
25.05.2023 17:18 15,8 C 25,0 C 66 % 1027,2 hPa 0,0 l/m 15,5 km/h (3 Bft) N 5 3 min 3,2 UV-I 572 W/m 9,5 C 12,0 C 22,5 km/h (4 Bft)
25.05.2023 17:21 15,9 C 24,4 C 66 % 1027,2 hPa 0,0 l/m 14,3 km/h (3 Bft) N 5 3 min 3,1 UV-I 574 W/m 9,6 C 12,5 C 22,5 km/h (4 Bft)
25.05.2023 17:24 15,8 C 24,4 C 66 % 1027,3 hPa 0,0 l/m 14,5 km/h (3 Bft) N-NW 346 3 min 3,0 UV-I 562 W/m 9,5 C 12,3 C 22,5 km/h (4 Bft)
25.05.2023 17:27 15,6 C 23,3 C 66 % 1027,3 hPa 0,0 l/m 15,8 km/h (3 Bft) N-NW 336 3 min 2,8 UV-I 554 W/m 9,3 C 11,7 C 22,5 km/h (4 Bft)
25.05.2023 17:30 15,5 C 23,3 C 66 % 1027,3 hPa 0,0 l/m 15,8 km/h (3 Bft) N-NW 345 3 min 3,0 UV-I 549 W/m 9,2 C 11,5 C 22,5 km/h (4 Bft)
25.05.2023 17:33 15,3 C 23,9 C 63 % 1027,4 hPa 0,0 l/m 16,7 km/h (3 Bft) N-NW 339 3 min 2,9 UV-I 541 W/m 8,3 C 11,0 C 25,7 km/h (4 Bft)
25.05.2023 17:36 15,6 C 23,3 C 65 % 1027,4 hPa 0,0 l/m 12,9 km/h (3 Bft) N-NW 343 3 min 2,8 UV-I 536 W/m 9,0 C 12,6 C 22,5 km/h (4 Bft)
25.05.2023 17:39 15,3 C 23,3 C 64 % 1027,4 hPa 0,0 l/m 13,9 km/h (3 Bft) N 355 3 min 2,7 UV-I 522 W/m 8,5 C 11,9 C 25,7 km/h (4 Bft)
25.05.2023 17:42 15,3 C 23,3 C 64 % 1027,3 hPa 0,0 l/m 11,8 km/h (2 Bft) N 360 3 min 2,7 UV-I 515 W/m 8,5 C 12,7 C 19,3 km/h (3 Bft)
25.05.2023 17:45 15,4 C 23,3 C 65 % 1027,3 hPa 0,0 l/m 12,5 km/h (3 Bft) NO 51 3 min 2,7 UV-I 515 W/m 8,9 C 12,5 C 19,3 km/h (3 Bft)
25.05.2023 17:48 15,6 C 22,8 C 66 % 1027,3 hPa 0,0 l/m 13,8 km/h (3 Bft) N 355 3 min 2,6 UV-I 510 W/m 9,3 C 12,3 C 22,5 km/h (4 Bft)
25.05.2023 17:51 15,6 C 22,8 C 66 % 1027,4 hPa 0,0 l/m 13,8 km/h (3 Bft) N 355 3 min 2,5 UV-I 498 W/m 9,3 C 12,3 C 20,9 km/h (4 Bft)
25.05.2023 17:54 15,3 C 22,8 C 65 % 1027,3 hPa 0,0 l/m 16,4 km/h (3 Bft) N-NW 336 3 min 2,5 UV-I 489 W/m 8,8 C 11,1 C 22,5 km/h (4 Bft)
25.05.2023 17:57 15,2 C 22,8 C 65 % 1027,3 hPa 0,0 l/m 14,9 km/h (3 Bft) N 360 3 min 2,4 UV-I 483 W/m 8,7 C 11,5 C 22,5 km/h (4 Bft)
25.05.2023 18:00 15,1 C 22,2 C 65 % 1027,3 hPa 0,0 l/m 16,7 km/h (3 Bft) N 355 3 min 2,4 UV-I 478 W/m 8,6 C 10,8 C 27,4 km/h (4 Bft)
25.05.2023 18:03 14,9 C 21,7 C 65 % 1027,4 hPa 0,0 l/m 16,8 km/h (3 Bft) N-NW 343 3 min 2,3 UV-I 468 W/m 8,4 C 10,5 C 25,7 km/h (4 Bft)
25.05.2023 18:06 14,9 C 21,7 C 66 % 1027,3 hPa 0,0 l/m 13,8 km/h (3 Bft) N 5 3 min 2,2 UV-I 456 W/m 8,6 C 11,5 C 22,5 km/h (4 Bft)
25.05.2023 18:09 14,9 C 21,1 C 67 % 1027,3 hPa 0,0 l/m 15,7 km/h (3 Bft) N-NO 25 3 min 2,1 UV-I 442 W/m 8,8 C 10,8 C 20,9 km/h (4 Bft)
25.05.2023 18:12 15,0 C 21,1 C 66 % 1027,3 hPa 0,0 l/m 13,4 km/h (3 Bft) N-NW 342 3 min 2,1 UV-I 435 W/m 8,7 C 11,7 C 17,7 km/h (3 Bft)
25.05.2023 18:15 15,0 C 20,6 C 67 % 1027,3 hPa 0,0 l/m 15,1 km/h (3 Bft) N-NW 348 3 min 2,0 UV-I 413 W/m 8,9 C 11,2 C 22,5 km/h (4 Bft)
25.05.2023 18:18 14,8 C 20,6 C 66 % 1027,3 hPa 0,0 l/m 15,4 km/h (3 Bft) N-NO 13 3 min 2,0 UV-I 420 W/m 8,5 C 10,8 C 22,5 km/h (4 Bft)
25.05.2023 18:21 14,7 C 20,0 C 66 % 1027,2 hPa 0,0 l/m 14,7 km/h (3 Bft) N 355 3 min 1,9 UV-I 404 W/m 8,4 C 10,9 C 22,5 km/h (4 Bft)
25.05.2023 18:24 14,7 C 19,4 C 66 % 1027,3 hPa 0,0 l/m 13,8 km/h (3 Bft) N-NO 13 3 min 1,9 UV-I 398 W/m 8,4 C 11,2 C 22,5 km/h (4 Bft)
25.05.2023 18:27 14,6 C 19,4 C 66 % 1027,2 hPa 0,0 l/m 17,2 km/h (3 Bft) N-NO 28 3 min 1,8 UV-I 401 W/m 8,3 C 10,0 C 24,1 km/h (4 Bft)
25.05.2023 18:30 14,6 C 18,3 C 67 % 1027,3 hPa 0,0 l/m 15,0 km/h (3 Bft) N-NO 28 3 min 1,8 UV-I 393 W/m 8,5 C 10,7 C 24,1 km/h (4 Bft)
25.05.2023 18:33 14,6 C 17,2 C 66 % 1027,3 hPa 0,0 l/m 14,2 km/h (3 Bft) N 5 3 min 1,7 UV-I 387 W/m 8,3 C 11,0 C 22,5 km/h (4 Bft)
25.05.2023 18:36 14,4 C 16,1 C 66 % 1027,3 hPa 0,0 l/m 16,4 km/h (3 Bft) N-NO 26 3 min 1,7 UV-I 378 W/m 8,1 C 10,0 C 27,4 km/h (4 Bft)
25.05.2023 18:39 14,5 C 16,1 C 66 % 1027,2 hPa 0,0 l/m 13,9 km/h (3 Bft) N-NO 22 3 min 1,6 UV-I 370 W/m 8,2 C 11,0 C 20,9 km/h (4 Bft)
25.05.2023 18:42 14,5 C 16,1 C 67 % 1027,2 hPa 0,0 l/m 12,1 km/h (2 Bft) N-NO 13 3 min 1,6 UV-I 360 W/m 8,4 C 11,7 C 20,9 km/h (4 Bft)
25.05.2023 18:45 14,4 C 15,6 C 67 % 1027,3 hPa 0,0 l/m 13,5 km/h (3 Bft) N 355 3 min 1,5 UV-I 349 W/m 8,4 C 11,0 C 24,1 km/h (4 Bft)
25.05.2023 18:48 14,3 C 15,6 C 67 % 1027,3 hPa 0,0 l/m 13,9 km/h (3 Bft) N-NO 28 3 min 1,4 UV-I 340 W/m 8,3 C 10,7 C 20,9 km/h (4 Bft)
25.05.2023 18:51 14,3 C 15,0 C 65 % 1027,3 hPa 0,0 l/m 14,8 km/h (3 Bft) N 11 3 min 1,4 UV-I 334 W/m 7,8 C 10,4 C 19,3 km/h (3 Bft)
25.05.2023 18:54 14,2 C 15,0 C 65 % 1027,2 hPa 0,0 l/m 18,7 km/h (3 Bft) N 5 3 min 1,3 UV-I 324 W/m 7,7 C 9,1 C 27,4 km/h (4 Bft)
25.05.2023 18:57 14,1 C 15,0 C 66 % 1027,2 hPa 0,0 l/m 15,5 km/h (3 Bft) N-NO 26 3 min 1,3 UV-I 312 W/m 7,8 C 9,9 C 22,5 km/h (4 Bft)
25.05.2023 19:00 14,1 C 15,0 C 67 % 1027,3 hPa 0,0 l/m 12,7 km/h (3 Bft) N-NO 12 3 min 1,3 UV-I 311 W/m 8,1 C 11,0 C 20,9 km/h (4 Bft)
25.05.2023 19:03 13,9 C 15,0 C 68 % 1027,2 hPa 0,0 l/m 16,1 km/h (3 Bft) N 9 3 min 1,2 UV-I 300 W/m 8,1 C 9,5 C 20,9 km/h (4 Bft)
25.05.2023 19:06 13,9 C 15,0 C 68 % 1027,2 hPa 0,0 l/m 13,9 km/h (3 Bft) N 360 3 min 1,2 UV-I 292 W/m 8,1 C 10,3 C 20,9 km/h (4 Bft)
25.05.2023 19:09 13,9 C 15,0 C 69 % 1027,2 hPa 0,0 l/m 11,8 km/h (2 Bft) N 5 3 min 1,1 UV-I 286 W/m 8,3 C 11,1 C 24,1 km/h (4 Bft)
25.05.2023 19:12 13,7 C 15,0 C 69 % 1027,3 hPa 0,0 l/m 17,8 km/h (3 Bft) N-NO 20 3 min 1,1 UV-I 277 W/m 8,1 C 8,7 C 25,7 km/h (4 Bft)
25.05.2023 19:15 13,6 C 14,4 C 69 % 1027,2 hPa 0,0 l/m 17,7 km/h (3 Bft) N-NO 19 3 min 1,0 UV-I 267 W/m 8,0 C 8,6 C 25,7 km/h (4 Bft)
25.05.2023 19:18 13,5 C 14,4 C 70 % 1027,3 hPa 0,0 l/m 16,9 km/h (3 Bft) N-NO 22 3 min 1,0 UV-I 258 W/m 8,1 C 8,7 C 24,1 km/h (4 Bft)
25.05.2023 19:21 13,4 C 13,9 C 70 % 1027,2 hPa 0,0 l/m 14,5 km/h (3 Bft) N-NO 20 3 min 0,9 UV-I 248 W/m 8,0 C 9,4 C 27,4 km/h (4 Bft)
25.05.2023 19:24 13,3 C 13,9 C 69 % 1027,2 hPa 0,0 l/m 16,9 km/h (3 Bft) N-NO 23 3 min 0,9 UV-I 238 W/m 7,7 C 8,5 C 25,7 km/h (4 Bft)
25.05.2023 19:27 13,3 C 13,3 C 69 % 1027,3 hPa 0,0 l/m 15,1 km/h (3 Bft) N-NO 19 3 min 0,8 UV-I 230 W/m 7,7 C 9,1 C 22,5 km/h (4 Bft)
25.05.2023 19:30 13,2 C 13,3 C 70 % 1027,2 hPa 0,0 l/m 16,2 km/h (3 Bft) N-NO 31 3 min 0,8 UV-I 225 W/m 7,9 C 8,6 C 22,5 km/h (4 Bft)
25.05.2023 19:33 13,2 C 13,3 C 70 % 1027,2 hPa 0,0 l/m 13,0 km/h (3 Bft) N-NO 19 3 min 0,8 UV-I 219 W/m 7,9 C 9,8 C 22,5 km/h (4 Bft)
25.05.2023 19:36 13,1 C 13,3 C 71 % 1027,1 hPa 0,0 l/m 15,7 km/h (3 Bft) N-NO 18 3 min 0,7 UV-I 212 W/m 8,0 C 8,6 C 24,1 km/h (4 Bft)
25.05.2023 19:39 13,1 C 12,8 C 71 % 1027,2 hPa 0,0 l/m 11,8 km/h (2 Bft) N-NO 26 3 min 0,7 UV-I 205 W/m 8,0 C 10,2 C 22,5 km/h (4 Bft)
25.05.2023 19:42 13,1 C 12,8 C 71 % 1027,3 hPa 0,0 l/m 8,9 km/h (2 Bft) N-NO 19 3 min 0,7 UV-I 195 W/m 8,0 C 11,6 C 17,7 km/h (3 Bft)
25.05.2023 19:45 13,0 C 12,8 C 70 % 1027,3 hPa 0,0 l/m 12,2 km/h (2 Bft) N-NO 13 3 min 0,6 UV-I 183 W/m 7,7 C 9,9 C 20,9 km/h (4 Bft)
25.05.2023 19:48 12,9 C 12,8 C 70 % 1027,4 hPa 0,0 l/m 12,5 km/h (3 Bft) N-NO 22 3 min 0,6 UV-I 177 W/m 7,6 C 9,6 C 19,3 km/h (3 Bft)
25.05.2023 19:51 12,8 C 12,2 C 70 % 1027,5 hPa 0,0 l/m 13,6 km/h (3 Bft) N 11 3 min 0,6 UV-I 165 W/m 7,5 C 9,1 C 24,1 km/h (4 Bft)
25.05.2023 19:54 12,7 C 12,2 C 70 % 1027,5 hPa 0,0 l/m 15,9 km/h (3 Bft) N-NW 342 3 min 0,5 UV-I 155 W/m 7,4 C 8,1 C 22,5 km/h (4 Bft)
25.05.2023 19:57 12,7 C 11,7 C 70 % 1027,5 hPa 0,0 l/m 15,6 km/h (3 Bft) N 350 3 min 0,5 UV-I 148 W/m 7,4 C 8,2 C 20,9 km/h (4 Bft)
25.05.2023 20:00 12,6 C 11,7 C 70 % 1027,4 hPa 0,0 l/m 14,1 km/h (3 Bft) N-NO 13 3 min 0,5 UV-I 142 W/m 7,3 C 8,6 C 20,9 km/h (4 Bft)
25.05.2023 20:03 12,4 C 11,7 C 71 % 1027,4 hPa 0,0 l/m 11,0 km/h (2 Bft) N-NO 31 3 min 0,3 UV-I 132 W/m 7,3 C 9,7 C 20,9 km/h (4 Bft)
25.05.2023 20:06 12,3 C 11,7 C 71 % 1027,4 hPa 0,0 l/m 11,7 km/h (2 Bft) NO 39 3 min 0,0 UV-I 124 W/m 7,2 C 9,3 C 17,7 km/h (3 Bft)
25.05.2023 20:09 12,2 C 11,1 C 72 % 1027,5 hPa 0,0 l/m 12,6 km/h (3 Bft) N-NO 13 3 min 0,0 UV-I 102 W/m 7,3 C 8,8 C 20,9 km/h (4 Bft)
25.05.2023 20:12 12,1 C 11,1 C 72 % 1027,5 hPa 0,0 l/m 10,9 km/h (2 Bft) N-NO 16 0 min 0,0 UV-I 55 W/m 7,2 C 9,5 C 19,3 km/h (3 Bft)
25.05.2023 20:15 12,1 C 11,1 C 72 % 1027,5 hPa 0,0 l/m 12,6 km/h (3 Bft) N 355 0 min 0,0 UV-I 51 W/m 7,2 C 8,7 C 19,3 km/h (3 Bft)
25.05.2023 20:18 11,9 C 10,6 C 72 % 1027,5 hPa 0,0 l/m 10,3 km/h (2 Bft) N 355 0 min 0,0 UV-I 59 W/m 7,0 C 9,5 C 16,1 km/h (3 Bft)
25.05.2023 20:21 11,8 C 10,6 C 73 % 1027,5 hPa 0,0 l/m 13,7 km/h (3 Bft) N 355 0 min 0,0 UV-I 55 W/m 7,1 C 7,8 C 20,9 km/h (4 Bft)
25.05.2023 20:24 11,8 C 10,6 C 73 % 1027,4 hPa 0,0 l/m 14,5 km/h (3 Bft) N-NO 19 0 min 0,0 UV-I 39 W/m 7,1 C 7,5 C 19,3 km/h (3 Bft)
25.05.2023 20:27 11,7 C 10,6 C 73 % 1027,4 hPa 0,0 l/m 10,7 km/h (2 Bft) N-NO 30 0 min 0,0 UV-I 33 W/m 7,0 C 9,1 C 19,3 km/h (3 Bft)
25.05.2023 20:30 11,6 C 10,0 C 74 % 1027,4 hPa 0,0 l/m 8,8 km/h (2 Bft) N-NW 340 0 min 0,0 UV-I 31 W/m 7,1 C 10,0 C 16,1 km/h (3 Bft)
25.05.2023 20:33 11,4 C 10,0 C 74 % 1027,4 hPa 0,0 l/m 12,1 km/h (2 Bft) N 5 0 min 0,0 UV-I 29 W/m 6,9 C 8,1 C 19,3 km/h (3 Bft)
25.05.2023 20:36 11,4 C 9,4 C 74 % 1027,5 hPa 0,0 l/m 9,3 km/h (2 Bft) N-NO 33 0 min 0,0 UV-I 27 W/m 6,9 C 9,5 C 16,1 km/h (3 Bft)
25.05.2023 20:39 11,4 C 9,4 C 74 % 1027,5 hPa 0,0 l/m 13,0 km/h (3 Bft) N 11 0 min 0,0 UV-I 26 W/m 6,9 C 7,7 C 19,3 km/h (3 Bft)
25.05.2023 20:42 11,4 C 9,4 C 74 % 1027,4 hPa 0,0 l/m 13,4 km/h (3 Bft) N 10 0 min 0,0 UV-I 25 W/m 6,9 C 7,5 C 22,5 km/h (4 Bft)
25.05.2023 20:45 11,4 C 9,4 C 74 % 1027,5 hPa 0,0 l/m 9,9 km/h (2 Bft) N 11 0 min 0,0 UV-I 25 W/m 6,9 C 9,2 C 17,7 km/h (3 Bft)
25.05.2023 20:48 11,3 C 9,4 C 75 % 1027,5 hPa 0,0 l/m 10,5 km/h (2 Bft) N 5 0 min 0,0 UV-I 23 W/m 7,0 C 8,8 C 17,7 km/h (3 Bft)
25.05.2023 20:51 11,2 C 9,4 C 75 % 1027,5 hPa 0,0 l/m 12,7 km/h (3 Bft) N 5 0 min 0,0 UV-I 22 W/m 6,9 C 7,6 C 20,9 km/h (4 Bft)
25.05.2023 20:54 11,2 C 9,4 C 75 % 1027,5 hPa 0,0 l/m 12,1 km/h (2 Bft) N-NO 24 0 min 0,0 UV-I 20 W/m 6,9 C 7,8 C 19,3 km/h (3 Bft)
25.05.2023 20:57 11,1 C 9,4 C 76 % 1027,6 hPa 0,0 l/m 7,3 km/h (2 Bft) N 360 0 min 0,0 UV-I 19 W/m 7,0 C 10,5 C 12,9 km/h (3 Bft)
25.05.2023 21:00 10,9 C 8,9 C 76 % 1027,5 hPa 0,0 l/m 7,9 km/h (2 Bft) N 360 0 min 0,0 UV-I 17 W/m 6,8 C 9,9 C 16,1 km/h (3 Bft)
25.05.2023 21:03 10,9 C 8,9 C 76 % 1027,5 hPa 0,0 l/m 9,5 km/h (2 Bft) N-NO 15 0 min 0,0 UV-I 14 W/m 6,8 C 8,9 C 16,1 km/h (3 Bft)
25.05.2023 21:06 10,9 C 8,9 C 76 % 1027,5 hPa 0,0 l/m 8,9 km/h (2 Bft) N 355 0 min 0,0 UV-I 12 W/m 6,8 C 9,2 C 12,9 km/h (3 Bft)
25.05.2023 21:09 10,8 C 8,9 C 76 % 1027,5 hPa 0,0 l/m 6,5 km/h (2 Bft) N 5 0 min 0,0 UV-I 11 W/m 6,7 C 10,8 C 11,3 km/h (2 Bft)
25.05.2023 21:12 10,7 C 8,3 C 77 % 1027,6 hPa 0,0 l/m 6,7 km/h (2 Bft) N 355 0 min 0,0 UV-I 11 W/m 6,8 C 10,5 C 12,9 km/h (3 Bft)
25.05.2023 21:15 10,7 C 8,3 C 77 % 1027,6 hPa 0,0 l/m 14,9 km/h (3 Bft) N-NO 25 0 min 0,0 UV-I 9 W/m 6,8 C 6,0 C 22,5 km/h (4 Bft)
25.05.2023 21:18 10,8 C 8,3 C 77 % 1027,6 hPa 0,0 l/m 9,2 km/h (2 Bft) N-NO 20 0 min 0,0 UV-I 8 W/m 6,9 C 8,9 C 17,7 km/h (3 Bft)
25.05.2023 21:21 10,6 C 8,3 C 77 % 1027,5 hPa 0,0 l/m 9,1 km/h (2 Bft) N-NO 28 0 min 0,0 UV-I 7 W/m 6,7 C 8,8 C 16,1 km/h (3 Bft)
25.05.2023 21:24 10,5 C 8,3 C 77 % 1027,6 hPa 0,0 l/m 8,6 km/h (2 Bft) N-NO 15 0 min 0,0 UV-I 5 W/m 6,6 C 9,0 C 17,7 km/h (3 Bft)
25.05.2023 21:27 10,5 C 8,3 C 77 % 1027,6 hPa 0,0 l/m 7,5 km/h (2 Bft) N 10 0 min 0,0 UV-I 5 W/m 6,6 C 9,7 C 14,5 km/h (3 Bft)
25.05.2023 21:30 10,3 C 7,8 C 77 % 1027,5 hPa 0,0 l/m 8,9 km/h (2 Bft) N-NO 12 0 min 0,0 UV-I 0 W/m 6,4 C 8,6 C 20,9 km/h (4 Bft)
25.05.2023 21:33 10,3 C 7,8 C 78 % 1027,6 hPa 0,0 l/m 7,3 km/h (2 Bft) N 11 0 min 0,0 UV-I 0 W/m 6,6 C 9,7 C 12,9 km/h (3 Bft)
25.05.2023 21:36 10,1 C 7,8 C 78 % 1027,6 hPa 0,0 l/m 5,9 km/h (2 Bft) N-NO 16 0 min 0,0 UV-I 0 W/m 6,4 C 10,1 C 8,0 km/h (2 Bft)
25.05.2023 21:39 9,9 C 7,2 C 79 % 1027,7 hPa 0,0 l/m 5,3 km/h (1 Bft) N-NO 18 0 min 0,0 UV-I 0 W/m 6,4 C 9,9 C 8,0 km/h (2 Bft)
25.05.2023 21:42 9,8 C 7,2 C 79 % 1027,7 hPa 0,0 l/m 6,9 km/h (2 Bft) N-NO 19 0 min 0,0 UV-I 0 W/m 6,3 C 9,4 C 12,9 km/h (3 Bft)
25.05.2023 21:45 9,8 C 7,2 C 79 % 1027,7 hPa 0,0 l/m 5,2 km/h (1 Bft) N-NO 18 0 min 0,0 UV-I 0 W/m 6,3 C 9,8 C 6,4 km/h (2 Bft)
25.05.2023 21:48 9,6 C 6,7 C 80 % 1027,8 hPa 0,0 l/m 4,9 km/h (1 Bft) N-NO 17 0 min 0,0 UV-I 0 W/m 6,3 C 9,6 C 6,4 km/h (2 Bft)
25.05.2023 21:51 9,4 C 6,7 C 80 % 1027,9 hPa 0,0 l/m 5,4 km/h (1 Bft) N-NO 24 0 min 0,0 UV-I 0 W/m 6,1 C 9,4 C 8,0 km/h (2 Bft)
25.05.2023 21:54 9,4 C 6,7 C 80 % 1027,9 hPa 0,0 l/m 5,1 km/h (1 Bft) N-NO 24 0 min 0,0 UV-I 0 W/m 6,1 C 9,4 C 6,4 km/h (2 Bft)
25.05.2023 21:57 9,3 C 6,7 C 81 % 1027,9 hPa 0,0 l/m 4,6 km/h (1 Bft) N-NO 24 0 min 0,0 UV-I 0 W/m 6,2 C 9,3 C 6,4 km/h (2 Bft)
25.05.2023 22:00 9,3 C 6,7 C 81 % 1027,9 hPa 0,0 l/m 4,4 km/h (1 Bft) N-NO 24 0 min 0,0 UV-I 0 W/m 6,2 C 9,3 C 6,4 km/h (2 Bft)
25.05.2023 22:03 9,3 C 6,7 C 81 % 1027,9 hPa 0,0 l/m 4,6 km/h (1 Bft) N-NO 24 0 min 0,0 UV-I 0 W/m 6,2 C 9,3 C 6,4 km/h (2 Bft)
25.05.2023 22:06 9,2 C 6,1 C 81 % 1027,9 hPa 0,0 l/m 4,8 km/h (1 Bft) N-NO 20 0 min 0,0 UV-I 0 W/m 6,1 C 9,2 C 12,9 km/h (3 Bft)
25.05.2023 22:09 9,4 C 6,7 C 81 % 1027,8 hPa 0,0 l/m 7,3 km/h (2 Bft) N-NO 26 0 min 0,0 UV-I 0 W/m 6,3 C 8,7 C 14,5 km/h (3 Bft)
25.05.2023 22:12 9,4 C 6,7 C 81 % 1027,9 hPa 0,0 l/m 5,5 km/h (1 Bft) N-NO 16 0 min 0,0 UV-I 0 W/m 6,3 C 9,4 C 11,3 km/h (2 Bft)
25.05.2023 22:15 9,3 C 6,1 C 81 % 1027,9 hPa 0,0 l/m 4,9 km/h (1 Bft) N-NO 17 0 min 0,0 UV-I 0 W/m 6,2 C 9,3 C 8,0 km/h (2 Bft)
25.05.2023 22:18 9,1 C 6,1 C 81 % 1028,0 hPa 0,0 l/m 5,3 km/h (1 Bft) N-NO 15 0 min 0,0 UV-I 0 W/m 6,0 C 9,1 C 6,4 km/h (2 Bft)
25.05.2023 22:21 9,1 C 6,1 C 82 % 1028,1 hPa 0,0 l/m 5,1 km/h (1 Bft) N-NO 16 0 min 0,0 UV-I 0 W/m 6,2 C 9,1 C 6,4 km/h (2 Bft)
25.05.2023 22:24 8,9 C 6,1 C 82 % 1028,0 hPa 0,0 l/m 5,1 km/h (1 Bft) N-NO 19 0 min 0,0 UV-I 0 W/m 6,0 C 8,9 C 8,0 km/h (2 Bft)
25.05.2023 22:27 8,9 C 6,1 C 82 % 1028,1 hPa 0,0 l/m 5,8 km/h (2 Bft) N-NO 19 0 min 0,0 UV-I 0 W/m 6,0 C 8,9 C 11,3 km/h (2 Bft)
25.05.2023 22:30 8,8 C 6,1 C 82 % 1028,0 hPa 0,0 l/m 5,9 km/h (2 Bft) N-NO 19 0 min 0,0 UV-I 0 W/m 5,9 C 8,8 C 11,3 km/h (2 Bft)
25.05.2023 22:33 8,8 C 6,1 C 82 % 1028,1 hPa 0,0 l/m 6,3 km/h (2 Bft) N-NO 19 0 min 0,0 UV-I 0 W/m 5,9 C 8,8 C 11,3 km/h (2 Bft)
25.05.2023 22:36 8,9 C 6,1 C 82 % 1028,1 hPa 0,0 l/m 5,9 km/h (2 Bft) N-NO 20 0 min 0,0 UV-I 0 W/m 6,0 C 8,9 C 11,3 km/h (2 Bft)
25.05.2023 22:39 8,9 C 6,1 C 83 % 1028,0 hPa 0,0 l/m 6,4 km/h (2 Bft) N-NO 24 0 min 0,0 UV-I 0 W/m 6,2 C 8,9 C 9,7 km/h (2 Bft)
25.05.2023 22:42 8,9 C 6,1 C 82 % 1028,1 hPa 0,0 l/m 5,7 km/h (1 Bft) N-NO 15 0 min 0,0 UV-I 0 W/m 6,0 C 8,9 C 8,0 km/h (2 Bft)
25.05.2023 22:45 8,9 C 6,1 C 82 % 1028,1 hPa 0,0 l/m 6,8 km/h (2 Bft) N-NO 22 0 min 0,0 UV-I 0 W/m 6,0 C 8,6 C 9,7 km/h (2 Bft)
25.05.2023 22:48 8,8 C 5,6 C 82 % 1028,1 hPa 0,0 l/m 5,2 km/h (1 Bft) N-NO 24 0 min 0,0 UV-I 0 W/m 5,9 C 8,8 C 6,4 km/h (2 Bft)
25.05.2023 22:51 8,8 C 5,6 C 83 % 1028,3 hPa 0,0 l/m 6,2 km/h (2 Bft) N-NO 24 0 min 0,0 UV-I 0 W/m 6,1 C 8,8 C 8,0 km/h (2 Bft)
25.05.2023 22:54 8,7 C 5,6 C 82 % 1028,1 hPa 0,0 l/m 6,1 km/h (2 Bft) N-NO 20 0 min 0,0 UV-I 0 W/m 5,8 C 8,7 C 8,0 km/h (2 Bft)
25.05.2023 22:57 8,7 C 5,6 C 83 % 1028,2 hPa 0,0 l/m 7,0 km/h (2 Bft) N-NO 15 0 min 0,0 UV-I 0 W/m 6,0 C 8,2 C 9,7 km/h (2 Bft)
25.05.2023 23:00 8,7 C 5,6 C 83 % 1028,3 hPa 0,0 l/m 7,0 km/h (2 Bft) N-NO 17 0 min 0,0 UV-I 0 W/m 6,0 C 8,2 C 9,7 km/h (2 Bft)
25.05.2023 23:03 8,7 C 6,1 C 83 % 1028,3 hPa 0,0 l/m 6,0 km/h (2 Bft) N-NO 25 0 min 0,0 UV-I 0 W/m 6,0 C 8,7 C 8,0 km/h (2 Bft)
25.05.2023 23:06 8,6 C 5,6 C 83 % 1028,2 hPa 0,0 l/m 5,2 km/h (1 Bft) N-NO 24 0 min 0,0 UV-I 0 W/m 5,9 C 8,6 C 6,4 km/h (2 Bft)
25.05.2023 23:09 8,6 C 5,6 C 83 % 1028,3 hPa 0,0 l/m 6,9 km/h (2 Bft) N-NO 29 0 min 0,0 UV-I 0 W/m 5,9 C 8,2 C 9,7 km/h (2 Bft)
25.05.2023 23:12 8,5 C 5,6 C 83 % 1028,3 hPa 0,0 l/m 6,6 km/h (2 Bft) N-NO 26 0 min 0,0 UV-I 0 W/m 5,8 C 8,4 C 9,7 km/h (2 Bft)
25.05.2023 23:15 8,4 C 5,6 C 84 % 1028,3 hPa 0,0 l/m 5,9 km/h (2 Bft) N-NO 26 0 min 0,0 UV-I 0 W/m 5,9 C 8,4 C 8,0 km/h (2 Bft)
25.05.2023 23:18 8,4 C 5,6 C 84 % 1028,3 hPa 0,0 l/m 5,8 km/h (2 Bft) N-NO 24 0 min 0,0 UV-I 0 W/m 5,9 C 8,4 C 8,0 km/h (2 Bft)
25.05.2023 23:21 8,4 C 5,6 C 84 % 1028,3 hPa 0,0 l/m 6,7 km/h (2 Bft) N-NO 18 0 min 0,0 UV-I 0 W/m 5,9 C 8,2 C 12,9 km/h (3 Bft)
25.05.2023 23:24 8,4 C 5,6 C 84 % 1028,3 hPa 0,0 l/m 6,3 km/h (2 Bft) N-NO 28 0 min 0,0 UV-I 0 W/m 5,9 C 8,4 C 11,3 km/h (2 Bft)
25.05.2023 23:27 8,4 C 5,6 C 84 % 1028,3 hPa 0,0 l/m 7,2 km/h (2 Bft) N-NO 21 0 min 0,0 UV-I 0 W/m 5,9 C 7,8 C 12,9 km/h (3 Bft)
25.05.2023 23:30 8,4 C 5,6 C 84 % 1028,3 hPa 0,0 l/m 6,4 km/h (2 Bft) N-NO 15 0 min 0,0 UV-I 0 W/m 5,9 C 8,4 C 9,7 km/h (2 Bft)
25.05.2023 23:33 8,4 C 5,6 C 84 % 1028,3 hPa 0,0 l/m 6,2 km/h (2 Bft) N-NO 15 0 min 0,0 UV-I 0 W/m 5,9 C 8,4 C 8,0 km/h (2 Bft)
25.05.2023 23:36 8,4 C 5,6 C 84 % 1028,3 hPa 0,0 l/m 3,6 km/h (1 Bft) N-NO 15 0 min 0,0 UV-I 0 W/m 5,9 C 8,4 C 4,8 km/h (1 Bft)
25.05.2023 23:39 8,3 C 5,6 C 84 % 1028,3 hPa 0,0 l/m 4,2 km/h (1 Bft) N-NO 23 0 min 0,0 UV-I 0 W/m 5,8 C 8,3 C 6,4 km/h (2 Bft)
25.05.2023 23:42 8,3 C 5,6 C 84 % 1028,2 hPa 0,0 l/m 4,4 km/h (1 Bft) NO 35 0 min 0,0 UV-I 0 W/m 5,8 C 8,3 C 8,0 km/h (2 Bft)
25.05.2023 23:45 8,2 C 5,6 C 85 % 1028,3 hPa 0,0 l/m 5,3 km/h (1 Bft) NO 35 0 min 0,0 UV-I 0 W/m 5,8 C 8,2 C 8,0 km/h (2 Bft)
25.05.2023 23:48 8,2 C 5,6 C 85 % 1028,3 hPa 0,0 l/m 4,8 km/h (1 Bft) NO 34 0 min 0,0 UV-I 0 W/m 5,8 C 8,2 C 6,4 km/h (2 Bft)
25.05.2023 23:51 8,1 C 5,6 C 85 % 1028,3 hPa 0,0 l/m 4,5 km/h (1 Bft) NO 34 0 min 0,0 UV-I 0 W/m 5,7 C 8,1 C 6,4 km/h (2 Bft)
25.05.2023 23:54 8,1 C 5,6 C 85 % 1028,3 hPa 0,0 l/m 4,7 km/h (1 Bft) N-NO 32 0 min 0,0 UV-I 0 W/m 5,7 C 8,1 C 8,0 km/h (2 Bft)
25.05.2023 23:57 8,0 C 5,0 C 85 % 1028,3 hPa 0,0 l/m 5,3 km/h (1 Bft) N-NO 32 0 min 0,0 UV-I 0 W/m 5,6 C 8,0 C 8,0 km/h (2 Bft)
_ Min-Zeit 05:45 04:15 12:24 00:27 - 00:00 - - - - - 05:45 05:45 00:00
Minimum _ 2,4 C 1,1 C 61 % 1025,7 hPa - 0,0 km/h (0 Bft) - - - - - 1,1 C 2,4 C 0,0 km/h (0 Bft)
_ Max-Zeit 15:33 13:54 05:21 22:51 00:00 14:15 - - 07:37 13:57 14:06 15:30 17:15 12:30
Maximum _ 16,4 C 27,8 C 93 % 1028,3 hPa 0,0 l/m 23,5 km/h
N (4 Bft)
- - 4 min 6,4 UV-I 943 W/m 10,3 C 13,9 C 33,8 km/h
N-NO (5 Bft)
Durchschnitt _ 10,1 C 12,3 C 77 % 1027,2 hPa #0,0 l/m 9,5 km/h (2 Bft) N-NO - #12:48 h 3,6 UV-I 481 W/m 6,2 C 7,9 C 15,0 km/h (3 Bft)